GFSGBSN_prec_precacc24_201.txt.gz
Total_Precipitation_Accumulation
0.01 0.01 0.00 0.00 0.01 0.01 0.01 0.01 0.00 0.00 0.00 0.00 0.00 0.00 0.00 0.00 0.00 0.00 0.00 0.00 0.00 0.00 0.00 0.00 0.00 0.00 0.00 0.00 0.00 0.00 0.00 0.00 0.00 0.00 0.00 0.00 0.00 0.00 0.00 0.00 0.00 0.00 0.00 0.00 0.00 0.00 0.00
0.07 0.02 0.01 0.01 0.02 0.01 0.01 0.00 0.00 0.00 0.00 0.00 0.00 0.00 0.00 0.00 0.00 0.00 0.00 0.00 0.00 0.00 0.00 0.00 0.00 0.00 0.00 0.00 0.00 0.00 0.00 0.00 0.00 0.00 0.00 0.00 0.00 0.00 0.00 0.00 0.00 0.00 0.00 0.00 0.00 0.00 0.00
0.15 0.10 0.04 0.02 0.01 0.01 0.00 0.00 0.00 0.00 0.00 0.00 0.00 0.00 0.00 0.00 0.00 0.00 0.00 0.00 0.00 0.00 0.00 0.00 0.00 0.00 0.00 0.00 0.00 0.00 0.00 0.00 0.00 0.00 0.00 0.00 0.00 0.00 0.00 0.00 0.00 0.00 0.00 0.00 0.00 0.00 0.00
0.19 0.21 0.16 0.10 0.03 0.02 0.00 0.00 0.00 0.00 0.00 0.00 0.00 0.00 0.00 0.00 0.00 0.00 0.00 0.00 0.00 0.00 0.00 0.00 0.00 0.00 0.00 0.00 0.00 0.00 0.00 0.00 0.00 0.00 0.00 0.00 0.00 0.00 0.00 0.00 0.00 0.00 0.00 0.00 0.00 0.00 0.00
0.24 0.21 0.21 0.17 0.15 0.09 0.04 0.01 0.01 0.00 0.00 0.00 0.00 0.00 0.00 0.00 0.00 0.00 0.00 0.00 0.00 0.00 0.00 0.00 0.00 0.00 0.00 0.00 0.00 0.00 0.00 0.00 0.00 0.00 0.00 0.00 0.00 0.00 0.00 0.00 0.00 0.00 0.00 0.00 0.00 0.00 0.00
0.31 0.29 0.27 0.24 0.21 0.16 0.13 0.11 0.08 0.05 0.02 0.01 0.00 0.00 0.00 0.00 0.00 0.00 0.00 0.00 0.00 0.00 0.00 0.00 0.00 0.00 0.00 0.00 0.00 0.00 0.00 0.00 0.00 0.00 0.00 0.00 0.00 0.00 0.00 0.00 0.00 0.00 0.00 0.00 0.00 0.00 0.00
0.54 0.42 0.31 0.29 0.29 0.30 0.29 0.23 0.16 0.11 0.07 0.05 0.03 0.02 0.01 0.01 0.01 0.00 0.00 0.00 0.00 0.00 0.00 0.00 0.00 0.00 0.00 0.00 0.00 0.00 0.00 0.00 0.00 0.00 0.00 0.00 0.00 0.00 0.00 0.00 0.00 0.00 0.00 0.00 0.00 0.00 0.00
0.94 0.89 0.83 0.70 0.59 0.57 0.50 0.45 0.38 0.32 0.24 0.13 0.07 0.05 0.04 0.03 0.02 0.02 0.01 0.02 0.00 0.00 0.00 0.00 0.00 0.00 0.00 0.00 0.00 0.00 0.00 0.00 0.00 0.00 0.00 0.00 0.00 0.00 0.00 0.00 0.00 0.00 0.00 0.00 0.00 0.00 0.00
1.53 1.60 1.50 1.27 1.12 1.04 0.92 0.70 0.55 0.46 0.38 0.26 0.15 0.11 0.08 0.07 0.06 0.03 0.00 0.00 0.00 0.00 0.02 0.00 0.00 0.00 0.00 0.00 0.00 0.00 0.00 0.00 0.00 0.00 0.00 0.00 0.00 0.00 0.00 0.00 0.00 0.00 0.00 0.00 0.00 0.00 0.00
1.50 1.50 1.55 1.51 1.41 1.27 1.06 0.87 0.72 0.59 0.55 0.49 0.30 0.17 0.12 0.09 0.08 0.02 0.03 0.01 0.01 0.07 0.41 0.09 0.00 0.00 0.00 0.00 0.00 0.00 0.00 0.00 0.00 0.00 0.00 0.00 0.00 0.00 0.00 0.00 0.00 0.00 0.00 0.00 0.00 0.00 0.00
1.50 1.55 1.58 1.48 1.46 1.41 1.20 0.95 0.80 0.72 0.57 0.45 0.39 0.27 0.19 0.10 0.09 0.09 0.07 0.02 0.06 0.41 1.46 0.20 0.00 0.00 0.00 0.00 0.00 0.00 0.00 0.00 0.00 0.00 0.00 0.00 0.00 0.00 0.00 0.00 0.00 0.00 0.00 0.00 0.00 0.00 0.00
1.10 1.20 1.34 1.41 1.57 1.61 1.54 1.42 1.30 1.11 0.92 0.82 0.61 0.40 0.21 0.18 0.14 0.12 0.07 0.04 0.22 1.27 1.59 0.12 0.00 0.00 0.00 0.00 0.00 0.00 0.00 0.00 0.00 0.00 0.00 0.00 0.00 0.00 0.00 0.00 0.00 0.00 0.00 0.00 0.00 0.00 0.00
0.89 1.06 1.13 1.11 1.25 1.40 1.50 1.61 1.63 1.60 1.59 1.51 1.41 1.02 0.43 0.20 0.23 0.12 0.11 0.23 1.01 1.68 0.55 0.03 0.00 0.00 0.00 0.00 0.00 0.00 0.00 0.00 0.00 0.00 0.00 0.00 0.00 0.00 0.00 0.00 0.00 0.00 0.00 0.00 0.00 0.00 0.00
0.65 0.69 0.76 0.93 0.99 1.09 1.27 1.40 1.51 1.68 1.83 1.87 1.84 1.72 1.49 0.90 0.37 0.18 0.19 0.60 1.41 0.78 0.12 0.01 0.00 0.00 0.00 0.00 0.00 0.00 0.00 0.00 0.00 0.00 0.00 0.00 0.00 0.00 0.00 0.00 0.00 0.00 0.00 0.00 0.00 0.00 0.00
0.45 0.52 0.56 0.60 0.67 0.81 0.97 1.16 1.33 1.53 1.69 1.78 1.84 2.08 2.33 1.94 0.83 0.40 0.52 1.19 0.99 0.33 0.09 0.03 0.02 0.04 0.01 0.00 0.00 0.00 0.00 0.00 0.00 0.00 0.01 0.02 0.01 0.00 0.00 0.00 0.00 0.00 0.00 0.00 0.00 0.00 0.00
0.37 0.37 0.37 0.44 0.52 0.62 0.76 0.83 0.98 1.09 1.15 1.22 1.48 1.79 1.88 1.43 1.14 1.00 1.21 1.31 0.63 0.18 0.06 0.03 0.10 0.14 0.05 0.01 0.01 0.00 0.00 0.00 0.00 0.00 0.02 0.05 0.06 0.00 0.00 0.00 0.00 0.01 0.01 0.06 0.08 0.11 0.06
0.29 0.32 0.31 0.31 0.37 0.44 0.61 0.70 0.88 0.98 0.85 0.82 0.94 1.13 1.30 1.18 1.32 1.56 1.69 1.07 0.39 0.06 0.04 0.11 0.12 0.12 0.10 0.05 0.02 0.02 0.02 0.00 0.00 0.00 0.00 0.02 0.13 0.05 0.00 0.02 0.05 0.11 0.16 0.26 0.38 0.41 0.50
0.43 0.35 0.31 0.31 0.33 0.37 0.54 0.63 0.78 0.74 0.80 0.94 0.90 0.88 0.77 0.81 1.03 1.21 0.78 0.34 0.11 0.03 0.03 0.07 0.06 0.04 0.03 0.01 0.02 0.01 0.01 0.00 0.00 0.00 0.00 0.00 0.05 0.05 0.01 0.00 0.01 0.04 0.08 0.14 0.53 0.39 0.40
0.66 0.60 0.49 0.46 0.41 0.41 0.48 0.59 0.66 0.63 0.61 0.85 0.98 0.94 0.96 0.86 0.73 0.41 0.19 0.11 0.09 0.05 0.04 0.05 0.03 0.01 0.01 0.01 0.04 0.01 0.00 0.00 0.00 0.00 0.00 0.02 0.08 0.09 0.02 0.00 0.01 0.04 0.03 0.05 0.19 0.34 0.29
0.96 0.86 0.67 0.63 0.61 0.55 0.54 0.58 0.61 0.73 0.70 0.51 0.88 1.20 1.41 1.20 0.68 0.24 0.19 0.19 0.11 0.05 0.06 0.08 0.12 0.10 0.10 0.09 0.06 0.07 0.02 0.00 0.00 0.00 0.02 0.12 0.11 0.09 0.05 0.00 0.01 0.04 0.05 0.08 0.23 0.42 0.29
1.14 1.01 0.93 0.80 0.75 0.68 0.67 0.79 0.87 0.98 0.85 0.67 0.75 0.70 0.51 0.53 0.38 0.19 0.22 0.30 0.19 0.17 0.10 0.06 0.12 0.07 0.10 0.20 0.13 0.10 0.08 0.04 0.01 0.00 0.01 0.12 0.15 0.07 0.05 0.01 0.01 0.01 0.01 0.02 0.06 0.08 0.14
1.24 1.16 1.03 0.99 0.94 0.93 1.03 1.12 1.13 0.92 0.65 0.54 0.69 0.37 0.16 0.10 0.07 0.10 0.17 0.23 0.11 0.06 0.07 0.09 0.14 0.11 0.14 0.21 0.17 0.15 0.14 0.13 0.09 0.04 0.05 0.08 0.19 0.08 0.06 0.01 0.01 0.03 0.01 0.00 0.00 0.00 0.01
1.31 1.31 1.12 1.31 1.35 1.24 1.29 1.01 0.75 0.53 0.38 0.37 0.30 0.13 0.12 0.26 0.18 0.14 0.18 0.15 0.08 0.02 0.03 0.01 0.01 0.04 0.05 0.05 0.12 0.18 0.13 0.13 0.12 0.10 0.08 0.13 0.19 0.21 0.19 0.04 0.11 0.17 0.01 0.00 0.01 0.01 0.01
1.27 1.43 1.33 1.36 1.36 1.12 0.86 0.59 0.40 0.25 0.16 0.20 0.11 0.10 0.17 0.39 0.20 0.10 0.05 0.03 0.03 0.01 0.03 0.00 0.00 0.00 0.00 0.00 0.02 0.02 0.02 0.02 0.01 0.01 0.03 0.07 0.09 0.22 0.24 0.15 0.35 0.08 0.00 0.00 0.01 0.00 0.00
0.97 0.90 0.83 0.82 0.76 0.54 0.41 0.31 0.16 0.14 0.07 0.10 0.07 0.05 0.11 0.25 0.15 0.11 0.07 0.05 0.04 0.04 0.02 0.00 0.00 0.00 0.00 0.01 0.05 0.05 0.04 0.04 0.02 0.00 0.00 0.01 0.07 0.19 0.26 0.18 0.09 0.00 0.01 0.02 0.06 0.10 0.02
0.53 0.54 0.44 0.38 0.32 0.21 0.20 0.16 0.10 0.09 0.10 0.08 0.07 0.02 0.03 0.14 0.12 0.05 0.04 0.02 0.04 0.04 0.02 0.01 0.00 0.00 0.01 0.08 0.14 0.11 0.08 0.06 0.06 0.02 0.01 0.02 0.08 0.25 0.30 0.31 0.11 0.00 0.00 0.00 0.03 0.08 0.02
0.14 0.16 0.11 0.07 0.06 0.03 0.02 0.02 0.03 0.06 0.08 0.07 0.02 0.00 0.02 0.09 0.07 0.02 0.02 0.03 0.01 0.01 0.03 0.01 0.02 0.03 0.09 0.19 0.17 0.08 0.05 0.05 0.08 0.05 0.05 0.16 0.29 0.38 0.25 0.29 0.09 0.01 0.00 0.01 0.10 0.08 0.05
0.05 0.02 0.01 0.01 0.00 0.00 0.00 0.00 0.00 0.03 0.09 0.06 0.03 0.02 0.07 0.07 0.03 0.00 0.00 0.00 0.00 0.03 0.06 0.06 0.12 0.15 0.27 0.38 0.34 0.29 0.17 0.11 0.10 0.05 0.06 0.11 0.24 0.29 0.32 0.41 0.22 0.06 0.03 0.07 0.05 0.02 0.02
0.00 0.00 0.00 0.00 0.00 0.00 0.00 0.00 0.00 0.02 0.11 0.05 0.03 0.02 0.06 0.11 0.05 0.00 0.00 0.00 0.00 0.01 0.07 0.18 0.20 0.31 0.70 0.79 0.65 0.51 0.40 0.28 0.14 0.10 0.05 0.16 0.19 0.25 0.34 0.34 0.16 0.10 0.06 0.02 0.03 0.04 0.03

GFSGBSN_prec_precacc24_204.txt.gz
Total_Precipitation_Accumulation
0.07 0.05 0.03 0.01 0.01 0.01 0.01 0.01 0.00 0.00 0.00 0.00 0.00 0.00 0.00 0.00 0.00 0.00 0.00 0.00 0.00 0.00 0.00 0.00 0.00 0.00 0.00 0.00 0.00 0.00 0.00 0.00 0.00 0.00 0.00 0.00 0.00 0.00 0.00 0.00 0.00 0.00 0.00 0.00 0.00 0.00 0.00
0.09 0.09 0.08 0.06 0.03 0.01 0.01 0.00 0.00 0.00 0.00 0.00 0.00 0.00 0.00 0.00 0.00 0.00 0.00 0.00 0.00 0.00 0.00 0.00 0.00 0.00 0.00 0.00 0.00 0.00 0.00 0.00 0.00 0.00 0.00 0.00 0.00 0.00 0.00 0.00 0.00 0.00 0.00 0.00 0.00 0.00 0.00
0.09 0.10 0.09 0.07 0.06 0.02 0.00 0.00 0.00 0.00 0.00 0.00 0.00 0.00 0.00 0.00 0.00 0.00 0.00 0.00 0.00 0.00 0.00 0.00 0.00 0.00 0.00 0.00 0.00 0.00 0.00 0.00 0.00 0.00 0.00 0.00 0.00 0.00 0.00 0.00 0.00 0.00 0.00 0.00 0.00 0.00 0.00
0.12 0.14 0.16 0.15 0.11 0.07 0.03 0.01 0.00 0.00 0.00 0.00 0.00 0.00 0.00 0.00 0.00 0.00 0.00 0.00 0.00 0.00 0.00 0.00 0.00 0.00 0.00 0.00 0.00 0.00 0.00 0.00 0.00 0.00 0.00 0.00 0.00 0.00 0.00 0.00 0.00 0.00 0.00 0.00 0.00 0.00 0.00
0.19 0.16 0.20 0.20 0.21 0.18 0.13 0.08 0.04 0.01 0.00 0.00 0.00 0.00 0.00 0.00 0.00 0.00 0.00 0.00 0.00 0.00 0.00 0.00 0.00 0.00 0.00 0.00 0.00 0.00 0.00 0.00 0.00 0.00 0.00 0.00 0.00 0.00 0.00 0.00 0.00 0.00 0.00 0.00 0.00 0.00 0.00
0.25 0.26 0.24 0.23 0.22 0.21 0.23 0.22 0.19 0.13 0.06 0.01 0.00 0.00 0.00 0.00 0.00 0.00 0.00 0.00 0.00 0.00 0.00 0.00 0.00 0.00 0.00 0.00 0.00 0.00 0.00 0.00 0.00 0.00 0.00 0.00 0.00 0.00 0.00 0.00 0.00 0.00 0.00 0.00 0.00 0.00 0.00
0.47 0.35 0.27 0.27 0.29 0.32 0.35 0.32 0.27 0.22 0.19 0.12 0.04 0.02 0.01 0.01 0.01 0.00 0.00 0.01 0.02 0.01 0.00 0.00 0.00 0.00 0.00 0.00 0.00 0.00 0.00 0.00 0.00 0.00 0.00 0.00 0.00 0.00 0.00 0.00 0.00 0.00 0.00 0.00 0.00 0.00 0.00
0.89 0.83 0.78 0.67 0.58 0.57 0.52 0.49 0.45 0.40 0.37 0.27 0.16 0.11 0.06 0.03 0.02 0.02 0.02 0.03 0.01 0.00 0.00 0.00 0.00 0.00 0.00 0.00 0.00 0.00 0.00 0.00 0.00 0.00 0.00 0.00 0.00 0.00 0.00 0.00 0.00 0.00 0.00 0.00 0.00 0.00 0.00
1.45 1.53 1.43 1.23 1.10 1.02 0.91 0.71 0.58 0.51 0.44 0.37 0.29 0.23 0.18 0.12 0.08 0.04 0.01 0.01 0.00 0.00 0.03 0.01 0.00 0.00 0.00 0.00 0.00 0.00 0.00 0.00 0.00 0.00 0.00 0.00 0.00 0.00 0.00 0.00 0.00 0.00 0.00 0.00 0.00 0.00 0.00
1.41 1.45 1.52 1.50 1.40 1.27 1.06 0.87 0.73 0.65 0.63 0.57 0.45 0.41 0.41 0.31 0.20 0.04 0.04 0.01 0.02 0.08 0.44 0.10 0.00 0.00 0.00 0.00 0.00 0.00 0.00 0.00 0.00 0.00 0.00 0.00 0.00 0.00 0.00 0.00 0.00 0.00 0.00 0.00 0.00 0.00 0.00
1.41 1.49 1.56 1.47 1.46 1.41 1.20 0.95 0.80 0.75 0.67 0.59 0.60 0.62 0.67 0.39 0.17 0.12 0.08 0.02 0.08 0.46 1.51 0.20 0.00 0.00 0.00 0.00 0.00 0.00 0.00 0.00 0.00 0.00 0.00 0.00 0.00 0.00 0.00 0.00 0.00 0.00 0.00 0.00 0.00 0.00 0.00
1.07 1.18 1.33 1.41 1.56 1.61 1.54 1.42 1.30 1.12 0.94 0.89 0.78 0.82 0.79 0.71 0.36 0.16 0.08 0.07 0.29 1.36 1.63 0.12 0.00 0.00 0.00 0.00 0.00 0.00 0.00 0.00 0.00 0.00 0.00 0.00 0.00 0.00 0.00 0.00 0.00 0.00 0.00 0.00 0.00 0.00 0.00
0.88 1.05 1.12 1.11 1.25 1.40 1.50 1.61 1.63 1.60 1.60 1.55 1.49 1.34 0.93 0.75 0.62 0.16 0.12 0.35 1.28 1.88 0.57 0.03 0.00 0.00 0.00 0.00 0.00 0.00 0.00 0.00 0.00 0.00 0.00 0.00 0.00 0.00 0.00 0.00 0.00 0.00 0.00 0.00 0.00 0.00 0.00
0.65 0.69 0.76 0.94 1.00 1.10 1.27 1.40 1.51 1.68 1.83 1.88 1.93 1.99 1.77 1.48 0.76 0.35 0.27 0.83 1.82 0.90 0.13 0.01 0.00 0.00 0.00 0.00 0.00 0.00 0.00 0.00 0.00 0.00 0.00 0.00 0.00 0.00 0.00 0.00 0.00 0.00 0.00 0.00 0.00 0.00 0.00
0.45 0.52 0.57 0.61 0.68 0.82 0.98 1.16 1.33 1.53 1.70 1.80 1.97 2.45 2.73 2.65 1.35 0.87 0.88 1.73 1.33 0.34 0.09 0.03 0.02 0.04 0.01 0.00 0.00 0.00 0.00 0.00 0.00 0.00 0.01 0.02 0.01 0.00 0.00 0.00 0.00 0.00 0.00 0.00 0.00 0.00 0.00
0.36 0.38 0.38 0.44 0.53 0.64 0.77 0.84 0.98 1.10 1.16 1.28 1.62 2.12 2.41 1.92 1.49 1.40 1.65 2.00 0.83 0.19 0.06 0.03 0.10 0.14 0.06 0.02 0.02 0.01 0.00 0.00 0.00 0.00 0.00 0.03 0.05 0.00 0.00 0.00 0.00 0.01 0.01 0.05 0.07 0.11 0.06
0.29 0.32 0.31 0.31 0.38 0.46 0.62 0.72 0.89 0.98 0.86 0.88 1.24 1.57 1.55 1.49 1.84 2.19 2.22 1.59 0.56 0.07 0.04 0.11 0.12 0.13 0.11 0.06 0.07 0.07 0.05 0.01 0.00 0.00 0.00 0.01 0.10 0.05 0.00 0.02 0.05 0.11 0.16 0.24 0.30 0.33 0.45
0.45 0.36 0.32 0.31 0.33 0.38 0.56 0.64 0.78 0.75 0.82 1.07 1.20 1.27 0.99 1.04 1.71 2.11 1.50 0.64 0.16 0.03 0.03 0.08 0.07 0.07 0.06 0.04 0.07 0.05 0.02 0.00 0.00 0.00 0.00 0.00 0.02 0.04 0.01 0.00 0.01 0.03 0.08 0.14 0.48 0.31 0.28
0.69 0.61 0.49 0.47 0.42 0.41 0.49 0.61 0.68 0.64 0.65 0.99 1.24 1.20 1.32 1.16 1.13 0.91 0.61 0.29 0.11 0.06 0.05 0.07 0.05 0.03 0.03 0.06 0.13 0.04 0.01 0.00 0.00 0.00 0.00 0.02 0.04 0.04 0.02 0.00 0.00 0.03 0.03 0.05 0.18 0.32 0.24
0.97 0.87 0.67 0.63 0.62 0.56 0.56 0.60 0.62 0.76 0.75 0.64 1.08 1.56 1.86 1.73 1.11 0.40 0.27 0.22 0.13 0.06 0.05 0.07 0.07 0.06 0.09 0.13 0.14 0.10 0.04 0.01 0.00 0.00 0.02 0.10 0.10 0.07 0.05 0.00 0.00 0.03 0.05 0.08 0.23 0.42 0.28
1.14 1.04 0.94 0.80 0.74 0.68 0.69 0.81 0.87 1.00 0.94 0.88 1.10 1.06 0.91 0.89 0.72 0.35 0.23 0.25 0.19 0.19 0.11 0.06 0.08 0.06 0.08 0.16 0.12 0.11 0.09 0.04 0.01 0.00 0.01 0.10 0.14 0.06 0.05 0.01 0.01 0.01 0.01 0.02 0.06 0.08 0.14
1.27 1.24 1.09 1.02 0.95 0.94 1.05 1.14 1.14 0.94 0.80 0.93 1.14 0.76 0.36 0.19 0.12 0.15 0.23 0.31 0.14 0.08 0.07 0.06 0.03 0.02 0.03 0.10 0.13 0.14 0.13 0.12 0.09 0.04 0.03 0.07 0.17 0.07 0.06 0.01 0.01 0.02 0.01 0.00 0.00 0.00 0.01
1.58 1.61 1.33 1.38 1.36 1.26 1.31 1.02 0.76 0.58 0.60 1.01 0.72 0.29 0.18 0.38 0.28 0.21 0.28 0.23 0.13 0.06 0.09 0.01 0.01 0.03 0.05 0.03 0.04 0.07 0.08 0.09 0.11 0.10 0.08 0.11 0.16 0.19 0.16 0.03 0.09 0.14 0.01 0.00 0.01 0.01 0.01
1.80 1.85 1.54 1.46 1.39 1.16 0.91 0.63 0.46 0.40 0.41 0.64 0.32 0.16 0.24 0.54 0.36 0.22 0.11 0.06 0.06 0.06 0.13 0.08 0.05 0.06 0.08 0.03 0.02 0.03 0.02 0.01 0.01 0.02 0.02 0.06 0.07 0.19 0.21 0.13 0.29 0.08 0.00 0.00 0.01 0.00 0.00
1.18 1.08 0.98 0.96 0.91 0.64 0.51 0.37 0.27 0.31 0.29 0.31 0.16 0.11 0.20 0.41 0.31 0.29 0.18 0.13 0.14 0.15 0.16 0.15 0.09 0.03 0.01 0.02 0.08 0.08 0.05 0.03 0.01 0.00 0.00 0.01 0.05 0.16 0.21 0.16 0.09 0.00 0.01 0.02 0.06 0.10 0.02
0.79 0.82 0.78 0.74 0.64 0.42 0.35 0.26 0.18 0.17 0.20 0.24 0.23 0.11 0.13 0.32 0.32 0.17 0.21 0.16 0.17 0.17 0.16 0.08 0.04 0.02 0.02 0.08 0.11 0.07 0.02 0.02 0.04 0.02 0.01 0.01 0.05 0.19 0.27 0.30 0.10 0.00 0.00 0.00 0.03 0.08 0.02
0.33 0.37 0.36 0.35 0.42 0.34 0.25 0.19 0.16 0.20 0.16 0.15 0.13 0.10 0.17 0.33 0.34 0.12 0.15 0.19 0.09 0.03 0.08 0.06 0.03 0.02 0.06 0.16 0.14 0.06 0.03 0.04 0.07 0.05 0.05 0.13 0.24 0.33 0.23 0.28 0.09 0.01 0.00 0.01 0.10 0.08 0.05
0.08 0.08 0.09 0.10 0.12 0.15 0.14 0.16 0.17 0.17 0.13 0.09 0.10 0.10 0.21 0.31 0.32 0.11 0.06 0.04 0.01 0.01 0.06 0.08 0.05 0.08 0.15 0.28 0.31 0.27 0.17 0.11 0.10 0.05 0.06 0.11 0.23 0.28 0.31 0.39 0.22 0.06 0.03 0.07 0.05 0.02 0.02
0.00 0.00 0.00 0.01 0.02 0.03 0.03 0.04 0.06 0.08 0.09 0.05 0.06 0.07 0.10 0.16 0.14 0.04 0.01 0.00 0.00 0.00 0.03 0.09 0.05 0.07 0.29 0.43 0.45 0.43 0.39 0.28 0.14 0.10 0.05 0.16 0.19 0.25 0.34 0.34 0.16 0.10 0.06 0.02 0.03 0.04 0.03

GFSGBSN_prec_precacc24_207.txt.gz
Total_Precipitation_Accumulation
0.09 0.10 0.11 0.10 0.08 0.04 0.01 0.00 0.00 0.00 0.00 0.00 0.00 0.00 0.00 0.00 0.00 0.00 0.00 0.00 0.00 0.00 0.00 0.00 0.00 0.00 0.00 0.00 0.00 0.00 0.00 0.00 0.00 0.00 0.00 0.00 0.00 0.00 0.00 0.00 0.00 0.00 0.00 0.00 0.00 0.00 0.00
0.09 0.09 0.10 0.12 0.14 0.12 0.07 0.02 0.00 0.00 0.00 0.00 0.00 0.00 0.00 0.00 0.00 0.00 0.00 0.00 0.00 0.00 0.00 0.00 0.00 0.00 0.00 0.00 0.00 0.00 0.00 0.00 0.00 0.00 0.00 0.00 0.00 0.00 0.00 0.00 0.00 0.00 0.00 0.00 0.00 0.00 0.00
0.08 0.08 0.08 0.09 0.13 0.14 0.12 0.09 0.04 0.00 0.00 0.00 0.00 0.00 0.00 0.00 0.00 0.00 0.00 0.00 0.00 0.00 0.00 0.00 0.00 0.00 0.00 0.00 0.00 0.00 0.00 0.00 0.00 0.00 0.00 0.00 0.00 0.00 0.00 0.00 0.00 0.00 0.00 0.00 0.00 0.00 0.00
0.11 0.11 0.10 0.10 0.11 0.12 0.13 0.13 0.11 0.06 0.01 0.00 0.00 0.00 0.00 0.00 0.00 0.00 0.00 0.00 0.00 0.00 0.00 0.00 0.00 0.00 0.00 0.00 0.00 0.00 0.00 0.00 0.00 0.00 0.00 0.00 0.00 0.00 0.00 0.00 0.00 0.00 0.00 0.00 0.00 0.00 0.00
0.13 0.11 0.12 0.13 0.14 0.16 0.16 0.16 0.16 0.14 0.07 0.01 0.00 0.00 0.00 0.00 0.00 0.00 0.00 0.00 0.01 0.00 0.01 0.00 0.00 0.00 0.00 0.00 0.00 0.00 0.00 0.00 0.00 0.00 0.00 0.00 0.00 0.00 0.00 0.00 0.00 0.00 0.00 0.00 0.00 0.00 0.00
0.16 0.14 0.13 0.13 0.16 0.17 0.21 0.25 0.26 0.26 0.21 0.12 0.03 0.00 0.00 0.00 0.00 0.00 0.00 0.00 0.01 0.01 0.00 0.00 0.00 0.00 0.00 0.00 0.00 0.00 0.00 0.00 0.00 0.00 0.00 0.00 0.00 0.00 0.00 0.00 0.00 0.00 0.00 0.00 0.00 0.00 0.00
0.25 0.21 0.19 0.20 0.22 0.26 0.32 0.31 0.30 0.30 0.33 0.33 0.24 0.14 0.03 0.01 0.01 0.00 0.00 0.01 0.03 0.03 0.02 0.00 0.00 0.00 0.00 0.00 0.00 0.00 0.00 0.00 0.00 0.00 0.00 0.00 0.00 0.00 0.00 0.00 0.00 0.00 0.00 0.00 0.00 0.00 0.00
0.53 0.50 0.51 0.49 0.47 0.51 0.48 0.48 0.46 0.45 0.45 0.40 0.36 0.42 0.36 0.12 0.03 0.02 0.02 0.04 0.01 0.00 0.00 0.00 0.00 0.00 0.00 0.00 0.00 0.00 0.00 0.00 0.00 0.00 0.00 0.00 0.00 0.00 0.00 0.00 0.00 0.00 0.00 0.00 0.00 0.00 0.00
0.94 1.07 1.08 0.99 0.93 0.94 0.83 0.67 0.57 0.52 0.48 0.50 0.53 0.53 0.56 0.57 0.30 0.11 0.02 0.01 0.00 0.00 0.03 0.01 0.00 0.00 0.00 0.00 0.00 0.00 0.00 0.00 0.00 0.00 0.00 0.00 0.00 0.00 0.00 0.00 0.00 0.00 0.00 0.00 0.00 0.00 0.00
0.94 1.04 1.15 1.25 1.23 1.16 0.98 0.82 0.71 0.65 0.64 0.62 0.58 0.71 0.87 1.03 0.99 0.31 0.08 0.01 0.02 0.09 0.46 0.10 0.00 0.00 0.00 0.00 0.00 0.00 0.00 0.00 0.00 0.00 0.00 0.00 0.00 0.00 0.00 0.00 0.00 0.00 0.00 0.00 0.00 0.00 0.00
1.06 1.16 1.23 1.20 1.32 1.35 1.17 0.94 0.80 0.75 0.67 0.60 0.65 0.76 1.13 1.19 0.91 0.40 0.10 0.03 0.13 0.56 1.64 0.21 0.00 0.00 0.00 0.00 0.00 0.00 0.00 0.00 0.00 0.00 0.00 0.00 0.00 0.00 0.00 0.00 0.00 0.00 0.00 0.00 0.00 0.00 0.00
0.85 0.99 1.17 1.28 1.51 1.59 1.53 1.41 1.30 1.12 0.94 0.90 0.80 0.90 1.10 1.21 1.37 0.62 0.12 0.13 0.59 1.90 1.87 0.12 0.00 0.00 0.00 0.00 0.00 0.00 0.00 0.00 0.00 0.00 0.00 0.00 0.00 0.00 0.00 0.00 0.00 0.00 0.00 0.00 0.00 0.00 0.00
0.72 0.90 1.00 1.00 1.18 1.37 1.48 1.59 1.63 1.60 1.60 1.55 1.49 1.38 1.11 1.00 1.26 0.62 0.29 0.61 2.00 2.45 0.62 0.03 0.00 0.00 0.00 0.00 0.00 0.00 0.00 0.00 0.00 0.00 0.00 0.00 0.00 0.00 0.00 0.00 0.00 0.00 0.00 0.00 0.00 0.00 0.00
0.56 0.62 0.70 0.88 0.96 1.08 1.27 1.40 1.51 1.68 1.83 1.88 1.94 2.02 1.88 1.65 1.14 0.84 0.66 1.49 2.63 1.18 0.13 0.01 0.00 0.00 0.00 0.00 0.00 0.00 0.00 0.00 0.00 0.00 0.00 0.00 0.00 0.00 0.00 0.00 0.00 0.00 0.00 0.00 0.00 0.00 0.00
0.42 0.49 0.54 0.60 0.67 0.81 0.98 1.16 1.33 1.54 1.70 1.80 2.00 2.48 2.82 2.92 1.78 1.23 1.38 2.70 1.92 0.43 0.09 0.03 0.02 0.04 0.01 0.00 0.00 0.00 0.00 0.00 0.00 0.00 0.00 0.01 0.01 0.00 0.00 0.00 0.00 0.00 0.00 0.00 0.00 0.00 0.00
0.38 0.38 0.37 0.43 0.52 0.63 0.77 0.85 0.99 1.10 1.17 1.29 1.64 2.15 2.47 2.14 1.97 1.95 2.10 2.55 1.15 0.20 0.06 0.03 0.10 0.14 0.06 0.02 0.02 0.01 0.00 0.00 0.00 0.00 0.00 0.01 0.02 0.00 0.00 0.00 0.00 0.01 0.01 0.06 0.10 0.12 0.06
0.35 0.37 0.35 0.32 0.38 0.46 0.63 0.73 0.90 0.99 0.87 0.92 1.30 1.61 1.59 1.64 2.39 2.89 2.98 2.12 0.69 0.08 0.04 0.11 0.12 0.13 0.11 0.06 0.07 0.07 0.05 0.01 0.00 0.00 0.00 0.00 0.03 0.02 0.00 0.02 0.05 0.10 0.16 0.23 0.29 0.29 0.37
0.50 0.42 0.39 0.35 0.34 0.38 0.56 0.65 0.80 0.76 0.86 1.16 1.28 1.31 1.03 1.18 2.39 2.78 2.00 1.05 0.33 0.06 0.04 0.08 0.07 0.07 0.06 0.04 0.07 0.05 0.02 0.00 0.00 0.00 0.00 0.00 0.01 0.03 0.01 0.00 0.00 0.02 0.07 0.13 0.45 0.28 0.26
0.74 0.66 0.55 0.53 0.45 0.42 0.50 0.62 0.68 0.65 0.70 1.08 1.31 1.23 1.42 1.37 1.59 1.33 1.00 0.60 0.22 0.09 0.07 0.08 0.05 0.03 0.04 0.06 0.14 0.04 0.01 0.00 0.00 0.00 0.00 0.02 0.05 0.05 0.02 0.00 0.00 0.01 0.01 0.02 0.13 0.24 0.20
1.03 0.92 0.71 0.70 0.69 0.58 0.57 0.61 0.63 0.76 0.78 0.75 1.12 1.64 1.99 2.17 1.40 0.61 0.43 0.40 0.21 0.08 0.06 0.06 0.06 0.06 0.09 0.13 0.13 0.07 0.04 0.01 0.00 0.00 0.01 0.07 0.09 0.06 0.04 0.00 0.00 0.03 0.04 0.06 0.19 0.36 0.26
1.19 1.10 1.00 0.89 0.84 0.72 0.69 0.82 0.88 1.00 0.95 1.01 1.24 1.30 1.04 1.10 1.08 0.59 0.30 0.21 0.15 0.18 0.11 0.07 0.11 0.08 0.08 0.12 0.09 0.05 0.04 0.02 0.01 0.00 0.01 0.10 0.14 0.06 0.05 0.01 0.01 0.01 0.01 0.01 0.05 0.08 0.14
1.30 1.29 1.19 1.12 1.03 0.97 1.06 1.15 1.14 0.94 0.85 1.14 1.44 1.01 0.53 0.25 0.20 0.31 0.31 0.36 0.14 0.08 0.07 0.07 0.04 0.02 0.01 0.03 0.04 0.03 0.02 0.02 0.03 0.03 0.02 0.06 0.17 0.06 0.05 0.01 0.00 0.01 0.00 0.00 0.00 0.00 0.01
1.67 1.67 1.38 1.43 1.40 1.29 1.34 1.05 0.75 0.58 0.72 1.28 1.09 0.40 0.33 0.42 0.31 0.30 0.32 0.26 0.15 0.06 0.09 0.01 0.01 0.04 0.07 0.06 0.03 0.02 0.03 0.02 0.02 0.02 0.04 0.09 0.16 0.17 0.17 0.03 0.06 0.10 0.00 0.00 0.00 0.01 0.01
1.89 1.89 1.56 1.48 1.40 1.18 0.94 0.66 0.45 0.39 0.47 0.81 0.57 0.25 0.43 0.75 0.39 0.28 0.14 0.06 0.06 0.06 0.13 0.08 0.05 0.11 0.17 0.07 0.08 0.16 0.14 0.10 0.07 0.03 0.01 0.04 0.08 0.20 0.22 0.09 0.23 0.07 0.00 0.00 0.01 0.00 0.00
1.32 1.16 1.02 1.00 0.93 0.66 0.53 0.37 0.27 0.31 0.33 0.35 0.28 0.28 0.33 0.62 0.38 0.30 0.20 0.14 0.15 0.16 0.21 0.20 0.17 0.11 0.09 0.07 0.25 0.35 0.27 0.20 0.16 0.08 0.03 0.02 0.04 0.12 0.18 0.13 0.07 0.00 0.01 0.02 0.06 0.10 0.02
1.03 1.04 0.92 0.80 0.68 0.46 0.37 0.26 0.19 0.19 0.27 0.28 0.31 0.39 0.29 0.37 0.43 0.20 0.24 0.18 0.22 0.26 0.35 0.28 0.20 0.21 0.18 0.20 0.23 0.17 0.08 0.05 0.04 0.03 0.02 0.02 0.05 0.16 0.21 0.25 0.10 0.00 0.00 0.00 0.03 0.08 0.02
0.53 0.68 0.61 0.55 0.55 0.43 0.32 0.24 0.21 0.23 0.19 0.19 0.20 0.30 0.38 0.37 0.39 0.18 0.17 0.22 0.17 0.12 0.20 0.25 0.27 0.26 0.19 0.20 0.21 0.12 0.05 0.03 0.06 0.04 0.05 0.10 0.18 0.25 0.18 0.24 0.08 0.01 0.00 0.01 0.10 0.08 0.05
0.13 0.23 0.40 0.47 0.46 0.43 0.36 0.30 0.27 0.23 0.15 0.10 0.15 0.23 0.38 0.46 0.50 0.23 0.16 0.10 0.09 0.06 0.16 0.27 0.15 0.18 0.18 0.19 0.20 0.22 0.16 0.11 0.10 0.05 0.05 0.10 0.20 0.24 0.25 0.30 0.19 0.06 0.03 0.07 0.05 0.02 0.02
0.00 0.02 0.09 0.19 0.36 0.44 0.43 0.38 0.32 0.23 0.15 0.08 0.12 0.18 0.30 0.35 0.40 0.18 0.12 0.08 0.06 0.04 0.09 0.19 0.12 0.10 0.15 0.19 0.25 0.28 0.26 0.22 0.12 0.10 0.05 0.16 0.18 0.25 0.34 0.34 0.16 0.10 0.06 0.02 0.03 0.04 0.03

GFSGBSN_prec_precacc24_210.txt.gz
Total_Precipitation_Accumulation
0.09 0.10 0.13 0.13 0.13 0.12 0.10 0.07 0.03 0.00 0.00 0.00 0.00 0.00 0.00 0.00 0.00 0.00 0.00 0.00 0.00 0.00 0.00 0.00 0.00 0.00 0.00 0.00 0.00 0.00 0.00 0.00 0.00 0.00 0.00 0.00 0.00 0.00 0.00 0.00 0.00 0.00 0.00 0.00 0.00 0.00 0.00
0.09 0.09 0.10 0.13 0.16 0.18 0.16 0.14 0.10 0.05 0.01 0.00 0.00 0.00 0.00 0.00 0.00 0.00 0.00 0.00 0.00 0.00 0.00 0.00 0.00 0.00 0.00 0.00 0.00 0.00 0.00 0.00 0.00 0.00 0.00 0.00 0.00 0.00 0.00 0.00 0.00 0.00 0.00 0.00 0.00 0.00 0.00
0.09 0.08 0.08 0.10 0.13 0.16 0.19 0.20 0.21 0.16 0.08 0.02 0.00 0.00 0.00 0.00 0.00 0.00 0.00 0.00 0.00 0.00 0.00 0.00 0.00 0.00 0.00 0.00 0.00 0.00 0.00 0.00 0.00 0.00 0.00 0.00 0.00 0.00 0.00 0.00 0.00 0.00 0.00 0.00 0.00 0.00 0.00
0.12 0.12 0.11 0.10 0.11 0.12 0.13 0.17 0.21 0.24 0.20 0.11 0.04 0.00 0.00 0.00 0.00 0.00 0.00 0.00 0.00 0.00 0.00 0.00 0.00 0.00 0.00 0.00 0.00 0.00 0.00 0.00 0.00 0.00 0.00 0.00 0.00 0.00 0.00 0.00 0.00 0.00 0.00 0.00 0.00 0.00 0.00
0.14 0.12 0.12 0.12 0.12 0.13 0.13 0.15 0.19 0.21 0.24 0.23 0.16 0.08 0.02 0.00 0.00 0.00 0.00 0.00 0.01 0.01 0.01 0.00 0.00 0.00 0.00 0.00 0.00 0.00 0.00 0.00 0.00 0.00 0.00 0.00 0.00 0.00 0.00 0.00 0.00 0.00 0.00 0.00 0.00 0.00 0.00
0.18 0.15 0.12 0.11 0.12 0.14 0.16 0.17 0.21 0.25 0.27 0.26 0.29 0.24 0.13 0.03 0.01 0.00 0.00 0.00 0.02 0.01 0.01 0.00 0.00 0.00 0.00 0.00 0.00 0.00 0.00 0.00 0.00 0.00 0.00 0.00 0.00 0.00 0.00 0.00 0.00 0.00 0.00 0.00 0.00 0.00 0.00
0.24 0.19 0.16 0.15 0.13 0.12 0.15 0.21 0.24 0.26 0.32 0.38 0.39 0.39 0.37 0.25 0.10 0.01 0.00 0.03 0.06 0.07 0.04 0.01 0.00 0.00 0.00 0.00 0.00 0.00 0.00 0.00 0.00 0.00 0.00 0.00 0.00 0.00 0.00 0.00 0.00 0.00 0.00 0.00 0.00 0.00 0.00
0.33 0.29 0.25 0.20 0.16 0.18 0.18 0.22 0.27 0.33 0.40 0.39 0.41 0.57 0.64 0.51 0.44 0.21 0.04 0.05 0.02 0.00 0.00 0.00 0.00 0.00 0.00 0.00 0.00 0.00 0.00 0.00 0.00 0.00 0.00 0.00 0.00 0.00 0.00 0.00 0.00 0.00 0.00 0.00 0.00 0.00 0.00
0.51 0.50 0.46 0.38 0.34 0.35 0.35 0.36 0.38 0.39 0.42 0.47 0.53 0.56 0.72 0.95 1.03 0.81 0.24 0.03 0.00 0.00 0.04 0.01 0.00 0.00 0.00 0.00 0.00 0.00 0.00 0.00 0.00 0.00 0.00 0.00 0.00 0.00 0.00 0.00 0.00 0.00 0.00 0.00 0.00 0.00 0.00
0.53 0.59 0.68 0.74 0.75 0.68 0.53 0.49 0.48 0.48 0.55 0.58 0.58 0.73 0.95 1.32 2.09 1.25 0.50 0.04 0.03 0.14 0.51 0.11 0.00 0.00 0.00 0.00 0.00 0.00 0.00 0.00 0.00 0.00 0.00 0.00 0.00 0.00 0.00 0.00 0.00 0.00 0.00 0.00 0.00 0.00 0.00
0.61 0.77 0.86 0.87 0.98 1.04 0.90 0.73 0.64 0.65 0.62 0.59 0.65 0.77 1.22 1.57 1.52 1.18 0.42 0.05 0.20 0.82 2.12 0.27 0.00 0.00 0.00 0.00 0.00 0.00 0.00 0.00 0.00 0.00 0.00 0.00 0.00 0.00 0.00 0.00 0.00 0.00 0.00 0.00 0.00 0.00 0.00
0.43 0.60 0.80 0.94 1.17 1.26 1.24 1.17 1.13 1.02 0.90 0.88 0.80 0.90 1.17 1.50 1.93 1.17 0.45 0.28 0.89 2.65 2.30 0.13 0.00 0.00 0.00 0.00 0.00 0.00 0.00 0.00 0.00 0.00 0.00 0.00 0.00 0.00 0.00 0.00 0.00 0.00 0.00 0.00 0.00 0.00 0.00
0.36 0.50 0.58 0.61 0.82 1.06 1.25 1.41 1.49 1.52 1.56 1.53 1.49 1.38 1.13 1.10 1.59 1.11 0.83 1.15 3.05 3.32 0.77 0.03 0.00 0.00 0.00 0.00 0.00 0.00 0.00 0.00 0.00 0.00 0.00 0.00 0.00 0.00 0.00 0.00 0.00 0.00 0.00 0.00 0.00 0.00 0.00
0.33 0.39 0.45 0.59 0.71 0.90 1.15 1.34 1.48 1.66 1.82 1.88 1.94 2.03 1.88 1.68 1.37 1.40 1.35 2.25 3.67 1.65 0.18 0.01 0.00 0.00 0.00 0.00 0.00 0.00 0.00 0.00 0.00 0.00 0.00 0.00 0.00 0.00 0.00 0.00 0.00 0.00 0.00 0.01 0.01 0.00 0.00
0.33 0.40 0.44 0.49 0.58 0.74 0.93 1.13 1.32 1.53 1.70 1.81 2.02 2.50 2.84 2.92 2.01 1.81 2.00 3.60 2.74 0.64 0.09 0.03 0.02 0.04 0.01 0.00 0.00 0.00 0.00 0.00 0.00 0.00 0.00 0.00 0.00 0.00 0.00 0.00 0.00 0.01 0.00 0.00 0.02 0.01 0.00
0.31 0.34 0.36 0.43 0.51 0.62 0.75 0.83 0.99 1.11 1.17 1.31 1.69 2.19 2.47 2.14 2.14 2.62 2.68 3.11 1.58 0.26 0.06 0.03 0.11 0.14 0.06 0.02 0.02 0.01 0.00 0.00 0.00 0.00 0.00 0.00 0.00 0.00 0.00 0.00 0.00 0.00 0.00 0.07 0.14 0.11 0.05
0.31 0.35 0.35 0.34 0.41 0.48 0.64 0.73 0.91 1.00 0.88 0.94 1.38 1.66 1.59 1.65 2.58 3.59 3.76 2.57 0.87 0.10 0.04 0.11 0.12 0.13 0.12 0.06 0.07 0.07 0.05 0.01 0.00 0.00 0.00 0.00 0.02 0.01 0.00 0.00 0.00 0.02 0.08 0.18 0.24 0.23 0.33
0.47 0.42 0.41 0.40 0.41 0.45 0.60 0.67 0.81 0.77 0.87 1.23 1.36 1.36 1.04 1.19 2.56 3.28 2.61 1.33 0.40 0.07 0.04 0.08 0.07 0.07 0.06 0.03 0.07 0.05 0.02 0.00 0.00 0.00 0.00 0.00 0.01 0.01 0.00 0.00 0.00 0.00 0.02 0.05 0.26 0.18 0.19
0.72 0.67 0.57 0.56 0.51 0.51 0.60 0.67 0.71 0.66 0.73 1.13 1.40 1.27 1.45 1.42 1.66 1.56 1.38 0.91 0.29 0.09 0.06 0.08 0.05 0.03 0.03 0.06 0.13 0.04 0.01 0.00 0.00 0.00 0.00 0.02 0.05 0.05 0.02 0.00 0.00 0.00 0.00 0.00 0.04 0.10 0.10
1.02 0.92 0.72 0.71 0.73 0.67 0.69 0.70 0.67 0.78 0.79 0.80 1.23 1.74 2.05 2.24 1.41 0.69 0.62 0.68 0.37 0.08 0.05 0.05 0.05 0.04 0.07 0.12 0.11 0.05 0.03 0.00 0.00 0.00 0.00 0.03 0.05 0.04 0.04 0.00 0.00 0.00 0.02 0.04 0.11 0.22 0.20
1.19 1.13 1.07 0.92 0.89 0.84 0.84 0.93 0.93 1.02 0.97 1.09 1.39 1.45 1.11 1.15 1.17 0.67 0.40 0.39 0.27 0.18 0.09 0.06 0.10 0.07 0.06 0.10 0.09 0.03 0.02 0.01 0.00 0.00 0.00 0.06 0.08 0.03 0.03 0.01 0.00 0.00 0.01 0.01 0.04 0.07 0.13
1.31 1.35 1.36 1.26 1.16 1.12 1.21 1.23 1.17 0.95 0.91 1.24 1.58 1.11 0.65 0.28 0.22 0.43 0.43 0.48 0.23 0.11 0.07 0.07 0.04 0.02 0.01 0.02 0.04 0.03 0.01 0.01 0.01 0.00 0.00 0.02 0.07 0.06 0.06 0.01 0.00 0.01 0.00 0.00 0.00 0.00 0.01
1.68 1.65 1.39 1.48 1.50 1.43 1.46 1.10 0.76 0.59 0.81 1.39 1.17 0.44 0.49 0.50 0.32 0.40 0.47 0.38 0.19 0.08 0.09 0.01 0.01 0.04 0.07 0.06 0.03 0.02 0.02 0.02 0.02 0.02 0.02 0.03 0.07 0.12 0.18 0.03 0.04 0.07 0.00 0.00 0.00 0.00 0.01
1.88 1.86 1.56 1.51 1.50 1.30 1.05 0.69 0.45 0.40 0.50 0.84 0.59 0.27 0.57 0.93 0.47 0.32 0.26 0.14 0.08 0.06 0.13 0.08 0.05 0.11 0.17 0.07 0.08 0.17 0.18 0.17 0.14 0.07 0.04 0.07 0.09 0.17 0.20 0.08 0.21 0.06 0.00 0.00 0.01 0.00 0.00
1.33 1.17 1.04 1.04 1.01 0.76 0.61 0.39 0.27 0.31 0.34 0.36 0.29 0.29 0.43 0.80 0.53 0.34 0.25 0.24 0.17 0.17 0.21 0.20 0.18 0.11 0.09 0.07 0.29 0.49 0.48 0.40 0.34 0.21 0.09 0.04 0.06 0.12 0.15 0.11 0.05 0.00 0.01 0.02 0.05 0.10 0.02
1.14 1.16 0.98 0.83 0.71 0.47 0.37 0.26 0.18 0.19 0.30 0.29 0.33 0.41 0.46 0.47 0.61 0.27 0.26 0.28 0.29 0.31 0.43 0.36 0.24 0.22 0.19 0.27 0.38 0.32 0.19 0.12 0.09 0.09 0.09 0.08 0.09 0.16 0.19 0.19 0.08 0.00 0.00 0.00 0.03 0.08 0.02
0.61 0.88 0.81 0.66 0.61 0.46 0.33 0.26 0.24 0.25 0.26 0.22 0.22 0.32 0.48 0.59 0.51 0.47 0.23 0.25 0.29 0.17 0.26 0.40 0.42 0.36 0.24 0.25 0.31 0.23 0.13 0.06 0.08 0.06 0.08 0.14 0.18 0.22 0.16 0.20 0.07 0.01 0.00 0.01 0.10 0.08 0.05
0.14 0.30 0.64 0.79 0.71 0.57 0.44 0.33 0.33 0.33 0.24 0.17 0.17 0.25 0.43 0.65 0.63 0.46 0.46 0.13 0.13 0.07 0.20 0.36 0.20 0.23 0.22 0.18 0.20 0.22 0.14 0.10 0.10 0.05 0.05 0.09 0.14 0.17 0.19 0.21 0.12 0.06 0.03 0.07 0.05 0.02 0.02
0.01 0.03 0.11 0.37 0.66 0.64 0.54 0.44 0.42 0.35 0.24 0.14 0.14 0.19 0.33 0.57 0.61 0.37 0.32 0.21 0.07 0.05 0.09 0.18 0.12 0.11 0.16 0.18 0.20 0.23 0.22 0.16 0.09 0.08 0.05 0.15 0.16 0.21 0.28 0.29 0.14 0.09 0.05 0.02 0.03 0.04 0.03

GFSGBSN_prec_precacc24_216.txt.gz
Total_Precipitation_Accumulation
0.10 0.11 0.13 0.13 0.13 0.12 0.11 0.11 0.13 0.15 0.14 0.11 0.07 0.03 0.01 0.00 0.00 0.00 0.00 0.00 0.00 0.00 0.00 0.00 0.00 0.00 0.00 0.00 0.00 0.00 0.00 0.00 0.00 0.00 0.00 0.00 0.00 0.00 0.00 0.00 0.00 0.00 0.00 0.00 0.00 0.00 0.00
0.10 0.10 0.10 0.13 0.16 0.18 0.17 0.16 0.14 0.13 0.13 0.14 0.13 0.09 0.04 0.01 0.00 0.00 0.00 0.00 0.00 0.00 0.00 0.00 0.00 0.00 0.00 0.00 0.00 0.00 0.00 0.00 0.00 0.00 0.00 0.00 0.00 0.00 0.00 0.00 0.00 0.00 0.00 0.00 0.00 0.00 0.00
0.10 0.10 0.09 0.10 0.13 0.16 0.19 0.22 0.23 0.21 0.17 0.13 0.13 0.15 0.13 0.07 0.02 0.00 0.00 0.00 0.00 0.00 0.00 0.00 0.00 0.00 0.00 0.00 0.00 0.00 0.00 0.00 0.00 0.00 0.00 0.00 0.00 0.00 0.00 0.00 0.00 0.00 0.00 0.00 0.00 0.00 0.00
0.14 0.13 0.12 0.12 0.12 0.12 0.13 0.17 0.22 0.25 0.25 0.20 0.16 0.16 0.16 0.15 0.10 0.02 0.00 0.00 0.00 0.00 0.00 0.00 0.00 0.00 0.00 0.00 0.00 0.00 0.00 0.00 0.00 0.00 0.00 0.00 0.00 0.00 0.00 0.00 0.00 0.00 0.00 0.00 0.00 0.00 0.00
0.14 0.12 0.13 0.14 0.14 0.14 0.14 0.15 0.19 0.21 0.26 0.30 0.30 0.27 0.23 0.21 0.20 0.14 0.04 0.01 0.01 0.01 0.01 0.00 0.00 0.01 0.00 0.00 0.00 0.00 0.00 0.00 0.00 0.00 0.00 0.00 0.00 0.00 0.00 0.00 0.00 0.00 0.00 0.00 0.00 0.00 0.00
0.18 0.16 0.13 0.13 0.14 0.15 0.17 0.17 0.20 0.23 0.25 0.28 0.38 0.48 0.46 0.38 0.32 0.28 0.24 0.12 0.06 0.04 0.03 0.02 0.01 0.02 0.00 0.00 0.00 0.00 0.00 0.00 0.00 0.00 0.00 0.00 0.00 0.00 0.00 0.00 0.00 0.00 0.00 0.00 0.00 0.00 0.00
0.24 0.19 0.16 0.16 0.15 0.12 0.15 0.20 0.22 0.23 0.29 0.34 0.39 0.48 0.65 0.72 0.70 0.64 0.68 0.73 0.55 0.25 0.14 0.04 0.02 0.00 0.00 0.00 0.00 0.00 0.00 0.00 0.00 0.00 0.00 0.00 0.00 0.00 0.00 0.00 0.00 0.00 0.00 0.00 0.00 0.00 0.00
0.26 0.28 0.25 0.20 0.16 0.15 0.13 0.14 0.16 0.23 0.29 0.30 0.34 0.55 0.71 0.79 1.08 1.38 1.48 1.17 0.42 0.04 0.03 0.01 0.00 0.00 0.00 0.00 0.00 0.00 0.00 0.00 0.00 0.00 0.00 0.00 0.00 0.00 0.00 0.00 0.00 0.00 0.00 0.00 0.00 0.00 0.00
0.25 0.28 0.31 0.28 0.23 0.19 0.16 0.15 0.17 0.19 0.21 0.31 0.40 0.47 0.68 1.03 1.42 2.01 1.72 0.82 0.14 0.05 0.30 0.10 0.00 0.00 0.00 0.00 0.00 0.00 0.00 0.00 0.00 0.00 0.00 0.00 0.00 0.00 0.00 0.00 0.00 0.00 0.00 0.00 0.00 0.00 0.00
0.18 0.20 0.25 0.35 0.42 0.39 0.29 0.22 0.19 0.20 0.25 0.30 0.37 0.59 0.87 1.37 2.45 1.71 1.42 0.47 0.29 0.62 1.85 0.74 0.05 0.01 0.00 0.00 0.00 0.00 0.00 0.00 0.00 0.00 0.00 0.00 0.00 0.00 0.00 0.00 0.00 0.00 0.00 0.00 0.00 0.00 0.00
0.17 0.26 0.28 0.30 0.40 0.47 0.49 0.46 0.39 0.34 0.29 0.30 0.41 0.58 1.09 1.59 1.59 1.30 0.63 0.34 0.96 2.26 3.94 0.83 0.01 0.00 0.00 0.00 0.00 0.00 0.00 0.00 0.00 0.00 0.00 0.00 0.00 0.00 0.00 0.00 0.00 0.00 0.00 0.00 0.00 0.00 0.00
0.08 0.11 0.21 0.37 0.50 0.58 0.60 0.60 0.65 0.65 0.57 0.55 0.51 0.71 1.07 1.46 1.97 1.21 0.54 0.75 2.28 4.71 4.00 0.41 0.00 0.00 0.00 0.00 0.00 0.00 0.00 0.00 0.00 0.00 0.00 0.00 0.00 0.00 0.00 0.00 0.00 0.00 0.00 0.00 0.00 0.00 0.00
0.10 0.10 0.10 0.11 0.18 0.34 0.50 0.66 0.79 0.88 0.94 1.01 1.09 1.11 0.98 1.03 1.53 1.14 1.14 1.96 4.51 5.20 1.77 0.18 0.01 0.00 0.00 0.01 0.00 0.00 0.01 0.00 0.00 0.00 0.00 0.00 0.00 0.00 0.00 0.00 0.00 0.00 0.00 0.00 0.01 0.00 0.00
0.14 0.12 0.11 0.13 0.15 0.19 0.32 0.50 0.73 0.98 1.15 1.30 1.49 1.72 1.66 1.49 1.25 1.51 1.93 3.12 4.75 2.66 0.85 0.07 0.00 0.00 0.00 0.01 0.00 0.00 0.00 0.01 0.00 0.00 0.00 0.00 0.00 0.00 0.00 0.00 0.00 0.00 0.00 0.01 0.03 0.01 0.00
0.16 0.13 0.13 0.14 0.19 0.26 0.32 0.47 0.67 0.91 1.12 1.29 1.62 2.17 2.56 2.67 1.88 1.88 2.57 4.57 3.67 1.15 0.30 0.06 0.02 0.05 0.02 0.00 0.00 0.00 0.00 0.00 0.00 0.00 0.00 0.00 0.00 0.00 0.00 0.00 0.00 0.01 0.00 0.00 0.04 0.02 0.00
0.18 0.17 0.15 0.18 0.24 0.30 0.37 0.43 0.54 0.65 0.74 0.92 1.35 1.93 2.21 1.99 2.06 2.69 3.25 3.83 2.15 0.53 0.10 0.03 0.11 0.18 0.07 0.02 0.02 0.01 0.01 0.00 0.00 0.00 0.00 0.00 0.00 0.00 0.00 0.00 0.00 0.00 0.00 0.05 0.14 0.08 0.01
0.22 0.24 0.22 0.21 0.26 0.31 0.44 0.49 0.63 0.73 0.66 0.76 1.31 1.62 1.47 1.61 2.62 3.74 4.39 3.09 1.16 0.26 0.08 0.12 0.12 0.18 0.12 0.07 0.07 0.08 0.05 0.01 0.00 0.00 0.00 0.00 0.02 0.01 0.00 0.00 0.00 0.00 0.00 0.00 0.02 0.03 0.07
0.22 0.23 0.28 0.30 0.31 0.34 0.48 0.54 0.67 0.66 0.83 1.27 1.60 1.53 1.00 1.23 2.68 3.48 2.96 1.61 0.62 0.11 0.04 0.09 0.08 0.10 0.07 0.04 0.08 0.06 0.03 0.00 0.00 0.00 0.00 0.00 0.04 0.05 0.00 0.00 0.00 0.00 0.00 0.00 0.02 0.01 0.01
0.30 0.28 0.32 0.37 0.39 0.42 0.50 0.60 0.67 0.68 0.84 1.42 1.81 1.40 1.48 1.54 1.89 1.85 1.46 1.02 0.48 0.14 0.07 0.11 0.13 0.06 0.04 0.05 0.14 0.06 0.01 0.00 0.00 0.00 0.01 0.03 0.19 0.16 0.07 0.04 0.00 0.00 0.00 0.00 0.00 0.01 0.01
0.51 0.51 0.41 0.45 0.54 0.52 0.58 0.65 0.70 0.94 1.01 1.15 1.61 1.93 2.19 2.42 1.56 0.76 0.70 0.72 0.59 0.20 0.11 0.08 0.13 0.07 0.07 0.12 0.13 0.04 0.03 0.01 0.00 0.00 0.01 0.03 0.14 0.04 0.03 0.02 0.00 0.00 0.00 0.00 0.01 0.02 0.01
0.82 0.81 0.80 0.70 0.72 0.76 0.76 0.88 1.05 1.29 1.30 1.50 1.71 1.54 1.22 1.47 1.39 0.75 0.43 0.44 0.34 0.34 0.19 0.17 0.20 0.14 0.09 0.10 0.14 0.07 0.04 0.01 0.00 0.01 0.04 0.05 0.10 0.02 0.01 0.04 0.08 0.01 0.00 0.00 0.01 0.00 0.01
1.04 1.12 1.18 1.16 1.13 1.17 1.26 1.36 1.45 1.33 1.33 1.55 1.72 1.13 0.68 0.30 0.24 0.49 0.47 0.56 0.29 0.21 0.21 0.24 0.25 0.12 0.07 0.06 0.06 0.07 0.06 0.03 0.02 0.02 0.02 0.02 0.02 0.01 0.03 0.03 0.12 0.13 0.01 0.00 0.00 0.00 0.00
1.53 1.46 1.22 1.38 1.49 1.60 1.72 1.50 1.16 1.04 1.20 1.57 1.22 0.47 0.55 0.53 0.36 0.48 0.53 0.42 0.24 0.14 0.18 0.12 0.16 0.15 0.16 0.10 0.04 0.02 0.03 0.03 0.03 0.02 0.03 0.03 0.05 0.08 0.14 0.02 0.09 0.12 0.02 0.00 0.00 0.00 0.01
1.84 1.78 1.47 1.44 1.50 1.40 1.31 1.04 0.82 0.68 0.63 0.91 0.62 0.30 0.62 1.00 0.51 0.36 0.28 0.16 0.12 0.12 0.22 0.13 0.11 0.23 0.29 0.11 0.12 0.21 0.22 0.20 0.16 0.09 0.06 0.11 0.16 0.23 0.25 0.10 0.25 0.04 0.00 0.00 0.00 0.00 0.00
1.31 1.17 1.05 1.03 1.02 0.90 1.06 0.81 0.59 0.55 0.44 0.37 0.30 0.31 0.44 0.84 0.58 0.37 0.30 0.29 0.22 0.21 0.30 0.27 0.21 0.19 0.16 0.17 0.45 0.76 0.77 0.73 0.58 0.31 0.16 0.11 0.14 0.28 0.20 0.13 0.02 0.00 0.00 0.00 0.01 0.02 0.00
1.14 1.20 1.10 0.90 0.73 0.51 0.58 0.73 0.64 0.66 0.52 0.37 0.39 0.44 0.48 0.53 0.75 0.35 0.32 0.38 0.39 0.40 0.55 0.53 0.34 0.26 0.43 0.83 0.90 0.78 0.52 0.36 0.28 0.26 0.23 0.16 0.16 0.25 0.33 0.25 0.07 0.00 0.00 0.00 0.02 0.02 0.01
0.59 0.91 0.94 0.80 0.76 0.51 0.34 0.40 0.58 0.51 0.35 0.25 0.29 0.38 0.56 0.63 0.59 0.73 0.49 0.42 0.56 0.36 0.47 0.66 0.68 0.71 0.69 1.03 1.04 0.55 0.28 0.06 0.06 0.06 0.15 0.22 0.27 0.28 0.19 0.18 0.06 0.01 0.00 0.01 0.05 0.02 0.03
0.12 0.31 0.75 0.97 0.82 0.70 0.55 0.38 0.38 0.41 0.34 0.23 0.28 0.35 0.52 0.71 0.71 0.60 0.70 0.29 0.50 0.50 0.51 0.62 0.45 0.59 0.80 0.85 0.77 0.68 0.34 0.09 0.02 0.01 0.01 0.05 0.10 0.14 0.16 0.12 0.07 0.04 0.01 0.03 0.03 0.00 0.01
0.01 0.04 0.13 0.45 0.83 0.74 0.61 0.54 0.48 0.40 0.33 0.23 0.26 0.41 0.54 0.73 0.70 0.42 0.46 0.46 0.22 0.41 0.39 0.37 0.27 0.21 0.33 0.49 0.50 0.41 0.30 0.10 0.02 0.02 0.01 0.08 0.09 0.14 0.16 0.11 0.03 0.02 0.02 0.01 0.01 0.01 0.01

GFSGBSN_prec_precacc24_222.txt.gz
Total_Precipitation_Accumulation
0.10 0.11 0.13 0.14 0.13 0.13 0.11 0.11 0.13 0.15 0.16 0.15 0.12 0.10 0.08 0.05 0.03 0.01 0.01 0.00 0.00 0.00 0.00 0.00 0.00 0.00 0.00 0.00 0.00 0.00 0.00 0.00 0.00 0.00 0.00 0.00 0.00 0.00 0.00 0.00 0.00 0.00 0.00 0.00 0.00 0.00 0.00
0.10 0.10 0.11 0.13 0.16 0.18 0.17 0.16 0.14 0.13 0.13 0.14 0.14 0.13 0.11 0.10 0.08 0.04 0.02 0.00 0.01 0.00 0.00 0.00 0.00 0.00 0.00 0.00 0.00 0.00 0.00 0.00 0.00 0.00 0.00 0.00 0.00 0.00 0.00 0.00 0.00 0.00 0.00 0.00 0.00 0.00 0.00
0.11 0.10 0.10 0.11 0.13 0.16 0.19 0.22 0.23 0.21 0.17 0.13 0.13 0.15 0.15 0.14 0.12 0.11 0.07 0.02 0.01 0.00 0.00 0.00 0.00 0.00 0.00 0.00 0.00 0.00 0.00 0.00 0.00 0.00 0.00 0.00 0.00 0.00 0.00 0.00 0.00 0.00 0.00 0.00 0.00 0.00 0.00
0.12 0.14 0.13 0.13 0.13 0.13 0.14 0.18 0.22 0.25 0.25 0.20 0.17 0.16 0.16 0.17 0.16 0.16 0.16 0.14 0.09 0.04 0.01 0.00 0.00 0.00 0.01 0.00 0.00 0.00 0.00 0.00 0.00 0.00 0.00 0.00 0.00 0.00 0.00 0.00 0.00 0.00 0.00 0.00 0.00 0.00 0.00
0.07 0.08 0.11 0.15 0.14 0.14 0.14 0.15 0.19 0.22 0.26 0.31 0.31 0.27 0.23 0.21 0.21 0.21 0.25 0.29 0.26 0.20 0.17 0.09 0.01 0.02 0.01 0.00 0.00 0.00 0.00 0.00 0.00 0.00 0.00 0.00 0.00 0.00 0.00 0.00 0.00 0.00 0.00 0.00 0.00 0.00 0.00
0.09 0.08 0.09 0.11 0.13 0.15 0.17 0.17 0.20 0.23 0.25 0.28 0.38 0.49 0.46 0.38 0.32 0.30 0.31 0.37 0.46 0.65 0.73 0.69 0.19 0.05 0.00 0.00 0.00 0.00 0.00 0.00 0.00 0.00 0.00 0.00 0.00 0.00 0.00 0.00 0.00 0.00 0.00 0.00 0.00 0.00 0.00
0.12 0.10 0.11 0.12 0.13 0.12 0.15 0.21 0.22 0.24 0.29 0.35 0.40 0.48 0.65 0.72 0.70 0.66 0.75 0.97 1.10 1.04 0.90 0.59 0.18 0.01 0.00 0.00 0.00 0.00 0.00 0.00 0.00 0.00 0.00 0.00 0.00 0.00 0.00 0.00 0.00 0.00 0.00 0.00 0.00 0.00 0.00
0.08 0.07 0.08 0.09 0.10 0.12 0.12 0.15 0.18 0.23 0.29 0.30 0.35 0.55 0.70 0.78 1.07 1.39 1.55 1.31 0.62 0.28 0.37 0.14 0.02 0.00 0.00 0.00 0.00 0.00 0.00 0.00 0.00 0.00 0.00 0.00 0.00 0.00 0.00 0.00 0.00 0.00 0.00 0.00 0.00 0.00 0.00
0.08 0.06 0.05 0.04 0.06 0.10 0.11 0.14 0.19 0.21 0.22 0.32 0.40 0.47 0.67 0.99 1.40 2.02 1.73 0.85 0.16 0.30 1.02 0.50 0.04 0.00 0.00 0.00 0.00 0.00 0.00 0.00 0.00 0.00 0.00 0.00 0.00 0.00 0.00 0.00 0.00 0.00 0.00 0.00 0.00 0.00 0.00
0.05 0.04 0.03 0.02 0.03 0.05 0.08 0.10 0.15 0.22 0.28 0.31 0.38 0.59 0.86 1.36 2.45 1.71 1.41 0.47 0.29 0.86 2.74 1.52 0.19 0.02 0.00 0.00 0.00 0.00 0.00 0.00 0.00 0.00 0.00 0.00 0.00 0.00 0.00 0.00 0.00 0.00 0.00 0.00 0.00 0.00 0.00
0.06 0.05 0.04 0.03 0.03 0.03 0.04 0.07 0.11 0.19 0.27 0.33 0.43 0.58 1.08 1.60 1.54 1.25 0.61 0.34 0.94 2.44 4.23 1.42 0.10 0.00 0.00 0.00 0.00 0.00 0.00 0.00 0.00 0.00 0.00 0.00 0.00 0.00 0.00 0.00 0.00 0.00 0.00 0.00 0.00 0.00 0.00
0.06 0.06 0.06 0.05 0.05 0.04 0.04 0.05 0.10 0.17 0.28 0.39 0.48 0.70 1.07 1.41 1.89 1.12 0.50 0.72 2.27 4.27 3.75 0.86 0.04 0.01 0.00 0.00 0.00 0.00 0.00 0.00 0.00 0.00 0.00 0.00 0.00 0.00 0.00 0.00 0.00 0.00 0.00 0.00 0.00 0.00 0.00
0.07 0.07 0.08 0.08 0.07 0.06 0.06 0.06 0.05 0.11 0.23 0.40 0.73 0.95 0.93 0.97 1.40 1.05 1.08 1.85 4.01 4.47 1.62 0.42 0.03 0.01 0.01 0.01 0.00 0.00 0.02 0.00 0.02 0.01 0.00 0.00 0.00 0.00 0.00 0.00 0.00 0.00 0.00 0.02 0.03 0.00 0.00
0.11 0.09 0.08 0.08 0.07 0.07 0.06 0.07 0.07 0.10 0.19 0.33 0.61 1.06 1.09 1.09 1.06 1.43 1.97 3.02 4.06 2.15 0.86 0.14 0.00 0.00 0.01 0.01 0.01 0.00 0.04 0.06 0.00 0.00 0.00 0.00 0.00 0.00 0.00 0.00 0.00 0.00 0.00 0.03 0.05 0.01 0.00
0.13 0.11 0.09 0.09 0.09 0.09 0.08 0.10 0.12 0.16 0.22 0.31 0.67 1.27 1.73 1.89 1.53 1.77 2.42 4.30 3.19 0.89 0.23 0.04 0.01 0.05 0.02 0.01 0.01 0.01 0.02 0.04 0.00 0.00 0.00 0.00 0.00 0.00 0.00 0.00 0.00 0.01 0.00 0.00 0.04 0.02 0.00
0.14 0.12 0.11 0.09 0.09 0.09 0.09 0.10 0.16 0.22 0.31 0.52 0.86 1.35 1.47 1.23 1.45 2.31 2.87 3.36 1.80 0.37 0.05 0.01 0.07 0.16 0.07 0.01 0.03 0.02 0.01 0.00 0.00 0.00 0.00 0.00 0.00 0.00 0.00 0.00 0.00 0.00 0.00 0.05 0.17 0.10 0.02
0.17 0.17 0.16 0.13 0.11 0.11 0.10 0.10 0.14 0.35 0.45 0.60 1.11 1.47 0.85 0.94 2.11 3.50 4.14 2.73 0.95 0.22 0.08 0.09 0.11 0.20 0.15 0.05 0.07 0.08 0.04 0.00 0.00 0.00 0.00 0.00 0.02 0.02 0.00 0.00 0.00 0.00 0.00 0.00 0.02 0.01 0.01
0.14 0.15 0.16 0.17 0.17 0.18 0.16 0.15 0.19 0.35 0.65 1.13 1.46 1.57 0.69 0.87 2.70 3.79 3.06 1.54 0.59 0.10 0.04 0.10 0.12 0.29 0.17 0.05 0.09 0.08 0.03 0.00 0.00 0.00 0.00 0.00 0.04 0.06 0.01 0.00 0.00 0.00 0.00 0.00 0.02 0.01 0.00
0.13 0.12 0.13 0.16 0.20 0.22 0.24 0.24 0.31 0.41 0.70 1.29 1.68 1.20 1.07 1.29 2.00 2.15 1.49 1.00 0.47 0.14 0.07 0.12 0.21 0.18 0.35 0.17 0.18 0.10 0.04 0.00 0.00 0.00 0.01 0.03 0.30 0.35 0.12 0.08 0.04 0.01 0.00 0.00 0.00 0.01 0.01
0.13 0.12 0.11 0.16 0.21 0.23 0.27 0.33 0.41 0.52 0.67 1.15 1.76 1.90 1.90 2.44 1.50 0.80 0.70 0.68 0.57 0.20 0.11 0.08 0.16 0.14 0.20 0.50 0.38 0.17 0.07 0.01 0.00 0.00 0.01 0.04 0.23 0.14 0.06 0.05 0.02 0.00 0.00 0.01 0.01 0.03 0.01
0.15 0.25 0.26 0.22 0.27 0.32 0.33 0.38 0.51 0.73 1.01 1.70 2.39 2.00 1.30 1.82 1.68 0.76 0.40 0.38 0.29 0.32 0.19 0.17 0.21 0.17 0.23 0.32 0.43 0.50 0.31 0.05 0.02 0.01 0.04 0.06 0.21 0.09 0.02 0.05 0.08 0.01 0.00 0.01 0.02 0.01 0.01
0.24 0.49 0.56 0.41 0.46 0.55 0.59 0.66 0.78 0.96 1.35 2.17 2.76 1.63 0.80 0.29 0.28 0.54 0.45 0.47 0.23 0.19 0.21 0.24 0.26 0.12 0.10 0.26 0.30 0.31 0.45 0.42 0.11 0.04 0.05 0.04 0.04 0.03 0.03 0.04 0.15 0.19 0.05 0.02 0.02 0.00 0.00
0.72 0.79 0.59 0.49 0.59 0.84 0.90 0.91 0.83 0.95 1.45 2.34 1.88 0.69 0.57 0.47 0.32 0.49 0.53 0.38 0.22 0.13 0.16 0.12 0.17 0.16 0.16 0.14 0.16 0.20 0.23 0.48 0.74 0.38 0.15 0.08 0.09 0.10 0.16 0.03 0.12 0.22 0.06 0.00 0.00 0.00 0.00
1.19 1.08 0.81 0.64 0.67 0.74 0.91 0.90 0.87 1.14 1.22 1.41 0.95 0.43 0.71 1.08 0.52 0.36 0.27 0.16 0.11 0.11 0.20 0.13 0.11 0.26 0.31 0.12 0.19 0.44 0.53 0.53 0.48 0.67 0.61 0.38 0.28 0.30 0.29 0.16 0.56 0.15 0.00 0.00 0.00 0.00 0.00
0.93 0.78 0.70 0.71 0.69 0.65 1.07 0.91 0.87 1.30 1.29 0.93 0.64 0.52 0.56 0.92 0.61 0.36 0.29 0.28 0.22 0.21 0.30 0.27 0.22 0.20 0.17 0.20 0.59 1.11 1.29 1.25 1.03 0.56 0.48 0.69 0.58 0.62 0.44 0.30 0.17 0.01 0.00 0.00 0.00 0.00 0.00
1.02 1.06 0.97 0.78 0.63 0.46 0.71 1.14 0.88 1.03 0.87 0.71 0.77 0.70 0.60 0.59 0.78 0.35 0.32 0.38 0.40 0.41 0.55 0.53 0.34 0.27 0.47 0.98 1.24 1.31 0.96 0.86 0.89 0.74 0.48 0.42 0.70 0.65 0.55 0.37 0.21 0.02 0.00 0.00 0.00 0.00 0.00
0.56 0.88 0.92 0.79 0.75 0.52 0.39 0.82 0.88 0.80 0.64 0.35 0.35 0.44 0.60 0.68 0.63 0.75 0.50 0.43 0.59 0.40 0.49 0.66 0.68 0.72 0.75 1.30 1.48 0.92 0.67 0.31 0.39 0.53 0.66 0.66 0.62 0.86 0.56 0.26 0.11 0.00 0.00 0.00 0.01 0.00 0.00
0.11 0.30 0.75 0.97 0.83 0.71 0.57 0.43 0.55 0.60 0.59 0.44 0.41 0.43 0.61 0.83 0.81 0.63 0.72 0.34 0.52 0.54 0.64 0.70 0.48 0.64 0.87 1.05 1.15 0.99 0.72 0.45 0.32 0.20 0.22 0.49 0.50 0.40 0.50 0.39 0.12 0.00 0.00 0.00 0.00 0.00 0.00
0.02 0.04 0.13 0.46 0.83 0.75 0.62 0.55 0.50 0.46 0.43 0.43 0.52 0.65 0.73 0.92 0.87 0.47 0.46 0.46 0.22 0.42 0.41 0.41 0.38 0.32 0.41 0.61 0.72 0.64 0.62 0.48 0.34 0.25 0.12 0.16 0.34 0.31 0.14 0.07 0.01 0.00 0.00 0.00 0.00 0.00 0.00

GFSGBSN_prec_precacc24_225.txt.gz
Total_Precipitation_Accumulation
0.11 0.12 0.13 0.14 0.14 0.13 0.12 0.13 0.14 0.16 0.16 0.15 0.12 0.10 0.11 0.09 0.06 0.03 0.02 0.01 0.01 0.01 0.00 0.00 0.00 0.00 0.00 0.00 0.00 0.00 0.00 0.00 0.00 0.00 0.00 0.00 0.00 0.00 0.00 0.00 0.00 0.00 0.00 0.00 0.00 0.00 0.00
0.07 0.10 0.11 0.13 0.16 0.18 0.17 0.16 0.15 0.14 0.14 0.14 0.14 0.13 0.12 0.11 0.11 0.07 0.03 0.01 0.01 0.01 0.01 0.00 0.00 0.00 0.00 0.00 0.00 0.00 0.00 0.00 0.00 0.00 0.00 0.00 0.00 0.00 0.00 0.00 0.00 0.00 0.00 0.00 0.00 0.00 0.00
0.06 0.07 0.09 0.12 0.14 0.16 0.19 0.22 0.23 0.21 0.18 0.14 0.14 0.15 0.15 0.14 0.13 0.12 0.09 0.05 0.02 0.01 0.01 0.01 0.00 0.00 0.00 0.00 0.00 0.00 0.00 0.00 0.00 0.00 0.00 0.00 0.00 0.00 0.00 0.00 0.00 0.00 0.00 0.00 0.00 0.00 0.00
0.07 0.07 0.10 0.12 0.14 0.13 0.14 0.18 0.22 0.26 0.26 0.21 0.17 0.17 0.16 0.17 0.17 0.16 0.16 0.16 0.14 0.10 0.08 0.07 0.04 0.00 0.01 0.00 0.00 0.00 0.00 0.00 0.00 0.00 0.00 0.00 0.00 0.00 0.00 0.00 0.00 0.00 0.00 0.00 0.00 0.00 0.00
0.08 0.07 0.08 0.10 0.12 0.14 0.14 0.16 0.19 0.22 0.26 0.31 0.31 0.28 0.23 0.21 0.21 0.21 0.25 0.29 0.27 0.30 0.40 0.47 0.33 0.05 0.01 0.00 0.00 0.00 0.00 0.00 0.00 0.00 0.00 0.00 0.00 0.00 0.00 0.00 0.00 0.00 0.00 0.00 0.00 0.00 0.00
0.10 0.08 0.07 0.09 0.11 0.11 0.15 0.17 0.20 0.23 0.26 0.29 0.39 0.49 0.46 0.38 0.33 0.30 0.31 0.37 0.46 0.69 0.89 1.28 0.92 0.27 0.03 0.00 0.00 0.00 0.00 0.00 0.00 0.00 0.00 0.00 0.00 0.00 0.00 0.00 0.00 0.00 0.00 0.00 0.00 0.00 0.00
0.12 0.09 0.09 0.08 0.08 0.08 0.12 0.17 0.21 0.23 0.29 0.35 0.41 0.49 0.66 0.73 0.71 0.67 0.75 0.97 1.10 1.05 0.97 0.93 0.57 0.10 0.01 0.00 0.00 0.00 0.00 0.00 0.00 0.00 0.00 0.00 0.00 0.00 0.00 0.00 0.00 0.00 0.00 0.00 0.00 0.00 0.00
0.08 0.07 0.08 0.07 0.06 0.06 0.07 0.12 0.16 0.20 0.28 0.31 0.36 0.56 0.70 0.79 1.08 1.41 1.56 1.30 0.62 0.28 0.39 0.18 0.11 0.04 0.00 0.00 0.00 0.00 0.00 0.00 0.00 0.00 0.00 0.00 0.00 0.00 0.00 0.00 0.00 0.00 0.00 0.00 0.00 0.00 0.00
0.08 0.07 0.05 0.04 0.05 0.06 0.06 0.07 0.09 0.13 0.16 0.31 0.46 0.50 0.68 1.00 1.41 2.03 1.74 0.85 0.16 0.30 1.03 0.51 0.05 0.01 0.00 0.00 0.00 0.00 0.00 0.00 0.00 0.00 0.00 0.00 0.00 0.00 0.00 0.00 0.00 0.00 0.00 0.00 0.00 0.00 0.00
0.05 0.04 0.03 0.03 0.04 0.03 0.03 0.03 0.05 0.11 0.15 0.17 0.34 0.63 0.91 1.39 2.45 1.71 1.42 0.47 0.29 0.85 2.63 1.51 0.20 0.03 0.00 0.00 0.00 0.00 0.00 0.00 0.00 0.00 0.00 0.00 0.00 0.00 0.00 0.00 0.00 0.00 0.00 0.00 0.00 0.00 0.00
0.06 0.06 0.04 0.03 0.04 0.03 0.03 0.02 0.02 0.06 0.14 0.19 0.30 0.54 1.11 1.71 1.56 1.26 0.62 0.34 0.93 2.32 3.82 1.40 0.10 0.01 0.00 0.00 0.00 0.00 0.00 0.00 0.00 0.00 0.00 0.00 0.00 0.00 0.00 0.00 0.00 0.00 0.00 0.00 0.00 0.00 0.00
0.06 0.06 0.06 0.06 0.05 0.05 0.04 0.04 0.03 0.03 0.05 0.12 0.24 0.56 1.07 1.51 2.02 1.14 0.51 0.73 2.28 4.10 3.38 0.86 0.04 0.01 0.01 0.00 0.00 0.00 0.00 0.00 0.00 0.00 0.00 0.00 0.00 0.00 0.00 0.00 0.00 0.00 0.00 0.00 0.00 0.00 0.00
0.07 0.07 0.08 0.07 0.07 0.06 0.05 0.05 0.04 0.03 0.04 0.08 0.13 0.41 0.81 0.99 1.45 1.09 1.09 1.84 3.91 4.24 1.54 0.42 0.04 0.02 0.01 0.01 0.01 0.00 0.02 0.01 0.02 0.02 0.01 0.00 0.00 0.00 0.00 0.00 0.00 0.00 0.00 0.02 0.03 0.00 0.00
0.11 0.09 0.08 0.07 0.07 0.06 0.06 0.05 0.05 0.04 0.05 0.07 0.15 0.39 0.47 0.85 1.04 1.51 2.08 3.03 3.96 2.04 0.85 0.14 0.00 0.01 0.02 0.02 0.01 0.00 0.04 0.07 0.00 0.00 0.00 0.00 0.00 0.00 0.00 0.00 0.00 0.00 0.00 0.03 0.05 0.01 0.00
0.12 0.10 0.09 0.08 0.08 0.08 0.08 0.07 0.07 0.07 0.06 0.09 0.31 0.61 0.67 1.04 1.25 1.82 2.57 4.17 2.96 0.85 0.23 0.04 0.01 0.04 0.04 0.03 0.01 0.02 0.03 0.04 0.00 0.00 0.00 0.00 0.00 0.00 0.00 0.00 0.00 0.01 0.00 0.00 0.04 0.02 0.00
0.13 0.11 0.10 0.09 0.08 0.08 0.09 0.09 0.09 0.09 0.10 0.22 0.43 0.72 0.79 0.74 1.12 2.24 2.89 2.98 1.60 0.35 0.04 0.01 0.03 0.09 0.06 0.03 0.06 0.05 0.03 0.01 0.00 0.00 0.00 0.00 0.00 0.00 0.00 0.00 0.00 0.00 0.00 0.05 0.19 0.11 0.02
0.16 0.16 0.15 0.12 0.10 0.10 0.10 0.10 0.09 0.11 0.13 0.32 0.83 1.21 0.53 0.52 1.64 3.23 3.73 2.27 0.78 0.20 0.05 0.03 0.04 0.10 0.08 0.06 0.12 0.12 0.08 0.01 0.00 0.00 0.00 0.00 0.02 0.02 0.00 0.00 0.00 0.00 0.00 0.00 0.03 0.01 0.01
0.14 0.15 0.15 0.16 0.16 0.16 0.15 0.13 0.11 0.13 0.27 0.65 1.10 1.30 0.43 0.52 2.43 3.42 2.72 1.30 0.51 0.08 0.01 0.04 0.08 0.26 0.16 0.04 0.11 0.21 0.18 0.03 0.00 0.00 0.00 0.00 0.04 0.06 0.01 0.00 0.00 0.00 0.00 0.00 0.02 0.01 0.00
0.13 0.11 0.12 0.14 0.17 0.20 0.23 0.20 0.19 0.19 0.42 0.88 1.27 0.83 0.77 0.92 1.75 2.01 1.39 0.92 0.40 0.10 0.04 0.09 0.20 0.18 0.35 0.17 0.17 0.13 0.14 0.08 0.00 0.01 0.01 0.03 0.31 0.41 0.15 0.11 0.10 0.01 0.00 0.00 0.00 0.01 0.01
0.11 0.11 0.10 0.13 0.19 0.21 0.25 0.28 0.27 0.31 0.43 0.96 1.39 1.41 1.46 2.23 1.26 0.71 0.65 0.62 0.52 0.16 0.08 0.06 0.14 0.13 0.19 0.48 0.38 0.18 0.09 0.07 0.04 0.03 0.02 0.04 0.23 0.17 0.11 0.08 0.05 0.00 0.00 0.01 0.01 0.03 0.01
0.10 0.16 0.20 0.19 0.25 0.30 0.28 0.29 0.33 0.45 0.69 1.51 2.10 1.65 1.08 1.69 1.67 0.73 0.37 0.34 0.26 0.26 0.14 0.14 0.18 0.16 0.22 0.30 0.41 0.52 0.32 0.05 0.05 0.09 0.14 0.13 0.24 0.09 0.02 0.05 0.08 0.01 0.00 0.01 0.02 0.02 0.01
0.12 0.27 0.39 0.38 0.41 0.41 0.38 0.40 0.44 0.52 0.93 1.95 2.59 1.60 0.81 0.28 0.24 0.52 0.39 0.38 0.20 0.17 0.17 0.21 0.25 0.12 0.09 0.25 0.29 0.32 0.47 0.44 0.12 0.06 0.25 0.27 0.16 0.09 0.05 0.04 0.15 0.20 0.06 0.02 0.02 0.01 0.00
0.45 0.44 0.33 0.24 0.29 0.47 0.54 0.61 0.50 0.63 1.24 2.18 1.66 0.62 0.60 0.52 0.28 0.50 0.47 0.29 0.17 0.12 0.15 0.12 0.17 0.16 0.16 0.14 0.16 0.20 0.25 0.55 0.81 0.48 0.36 0.47 0.60 0.45 0.34 0.05 0.12 0.23 0.10 0.01 0.02 0.00 0.00
0.68 0.51 0.29 0.20 0.23 0.38 0.60 0.65 0.66 1.02 1.18 1.44 0.97 0.49 0.89 1.09 0.46 0.35 0.24 0.13 0.09 0.11 0.19 0.13 0.11 0.26 0.31 0.12 0.19 0.43 0.53 0.58 0.62 0.82 0.83 0.75 0.69 0.83 0.67 0.31 0.62 0.16 0.01 0.00 0.00 0.00 0.00
0.43 0.33 0.27 0.26 0.32 0.43 0.90 0.78 0.79 1.23 1.26 0.96 0.71 0.78 0.91 1.06 0.63 0.31 0.24 0.24 0.19 0.18 0.28 0.27 0.22 0.20 0.17 0.20 0.59 1.11 1.29 1.25 1.05 0.64 0.55 0.84 0.82 1.09 0.93 0.52 0.28 0.05 0.00 0.00 0.00 0.00 0.00
0.66 0.70 0.67 0.53 0.43 0.34 0.58 1.05 0.83 0.98 0.82 0.68 0.76 0.89 0.89 0.68 0.78 0.33 0.31 0.39 0.42 0.47 0.61 0.54 0.34 0.27 0.47 1.00 1.32 1.36 0.96 0.86 0.90 0.75 0.51 0.49 0.80 0.87 0.88 0.68 0.45 0.10 0.00 0.00 0.00 0.00 0.00
0.49 0.78 0.84 0.74 0.71 0.50 0.37 0.82 0.88 0.80 0.66 0.39 0.38 0.51 0.79 0.85 0.64 0.75 0.55 0.48 0.60 0.42 0.52 0.67 0.68 0.72 0.77 1.40 1.56 0.95 0.68 0.32 0.40 0.56 0.70 0.81 0.96 1.32 0.98 0.54 0.29 0.07 0.01 0.00 0.01 0.01 0.00
0.11 0.31 0.75 0.97 0.83 0.71 0.57 0.44 0.56 0.62 0.61 0.50 0.44 0.46 0.70 0.95 0.87 0.66 0.73 0.36 0.53 0.56 0.67 0.71 0.51 0.70 0.94 1.14 1.18 0.99 0.72 0.45 0.33 0.21 0.24 0.52 0.64 0.76 0.97 0.95 0.51 0.04 0.00 0.00 0.00 0.00 0.00
0.03 0.05 0.14 0.46 0.84 0.75 0.62 0.57 0.52 0.49 0.46 0.47 0.54 0.65 0.75 1.01 1.00 0.51 0.47 0.47 0.23 0.42 0.41 0.41 0.39 0.34 0.42 0.62 0.73 0.64 0.62 0.49 0.35 0.27 0.12 0.19 0.41 0.43 0.37 0.37 0.21 0.07 0.05 0.01 0.00 0.00 0.00

GFSGBSN_prec_precacc24_231.txt.gz
Total_Precipitation_Accumulation
0.03 0.04 0.03 0.04 0.06 0.10 0.11 0.13 0.15 0.17 0.17 0.16 0.13 0.10 0.11 0.11 0.09 0.08 0.06 0.05 0.04 0.03 0.04 0.03 0.02 0.00 0.00 0.00 0.00 0.00 0.00 0.00 0.00 0.00 0.00 0.00 0.00 0.00 0.00 0.00 0.00 0.00 0.00 0.00 0.00 0.00 0.00
0.05 0.04 0.03 0.02 0.05 0.07 0.11 0.15 0.15 0.14 0.14 0.15 0.15 0.13 0.12 0.11 0.12 0.12 0.10 0.06 0.03 0.03 0.04 0.08 0.10 0.07 0.00 0.00 0.00 0.00 0.00 0.00 0.00 0.00 0.00 0.00 0.00 0.00 0.00 0.00 0.00 0.00 0.00 0.00 0.00 0.00 0.00
0.06 0.05 0.04 0.04 0.04 0.05 0.08 0.13 0.20 0.21 0.18 0.14 0.15 0.16 0.17 0.15 0.14 0.14 0.14 0.11 0.06 0.04 0.04 0.10 0.25 0.24 0.04 0.00 0.00 0.00 0.00 0.00 0.00 0.00 0.00 0.00 0.00 0.00 0.00 0.00 0.00 0.00 0.00 0.00 0.00 0.00 0.00
0.06 0.06 0.07 0.07 0.06 0.05 0.05 0.08 0.13 0.20 0.25 0.21 0.17 0.18 0.17 0.18 0.18 0.18 0.18 0.17 0.16 0.15 0.14 0.17 0.33 0.28 0.10 0.00 0.00 0.00 0.00 0.00 0.00 0.00 0.00 0.00 0.00 0.00 0.00 0.00 0.00 0.00 0.00 0.00 0.00 0.00 0.00
0.08 0.07 0.07 0.07 0.07 0.07 0.06 0.06 0.08 0.12 0.21 0.31 0.32 0.29 0.24 0.22 0.22 0.23 0.28 0.31 0.27 0.32 0.48 0.65 0.65 0.43 0.09 0.00 0.00 0.00 0.00 0.00 0.00 0.00 0.00 0.00 0.00 0.00 0.00 0.00 0.00 0.00 0.00 0.00 0.00 0.00 0.00
0.09 0.07 0.07 0.08 0.09 0.08 0.07 0.06 0.09 0.10 0.12 0.21 0.39 0.52 0.49 0.41 0.34 0.32 0.33 0.39 0.46 0.69 0.92 1.54 1.70 1.21 0.26 0.00 0.00 0.00 0.00 0.00 0.00 0.00 0.00 0.00 0.00 0.00 0.00 0.00 0.00 0.00 0.00 0.00 0.00 0.00 0.00
0.11 0.08 0.07 0.07 0.08 0.07 0.08 0.09 0.11 0.09 0.10 0.15 0.29 0.45 0.69 0.76 0.74 0.70 0.78 0.96 1.08 1.09 1.04 1.05 1.15 0.74 0.10 0.00 0.00 0.00 0.00 0.00 0.00 0.00 0.00 0.00 0.00 0.00 0.00 0.00 0.00 0.00 0.00 0.00 0.00 0.00 0.00
0.08 0.07 0.08 0.07 0.06 0.06 0.07 0.09 0.10 0.09 0.11 0.13 0.17 0.30 0.46 0.76 1.11 1.43 1.58 1.30 0.62 0.29 0.44 0.21 0.19 0.31 0.19 0.05 0.06 0.00 0.00 0.00 0.00 0.00 0.00 0.00 0.00 0.00 0.00 0.00 0.00 0.00 0.00 0.00 0.00 0.00 0.00
0.08 0.07 0.06 0.05 0.06 0.07 0.07 0.08 0.07 0.07 0.07 0.08 0.11 0.16 0.32 0.63 1.27 1.98 1.74 0.85 0.17 0.31 1.05 0.51 0.06 0.04 0.04 0.08 0.14 0.04 0.00 0.00 0.00 0.00 0.00 0.00 0.00 0.00 0.00 0.00 0.00 0.00 0.00 0.00 0.00 0.00 0.00
0.05 0.04 0.04 0.04 0.04 0.04 0.04 0.04 0.04 0.05 0.05 0.06 0.06 0.10 0.22 0.64 1.69 1.42 1.37 0.46 0.31 0.88 2.62 1.51 0.20 0.03 0.00 0.07 0.22 0.06 0.01 0.00 0.02 0.00 0.00 0.00 0.00 0.00 0.00 0.00 0.00 0.00 0.00 0.00 0.00 0.00 0.00
0.06 0.05 0.04 0.04 0.04 0.04 0.03 0.03 0.02 0.03 0.04 0.04 0.05 0.06 0.19 0.73 0.86 0.97 0.59 0.33 0.90 2.27 3.66 1.41 0.10 0.01 0.00 0.03 0.09 0.01 0.02 0.02 0.02 0.01 0.03 0.04 0.00 0.00 0.00 0.00 0.00 0.00 0.00 0.00 0.00 0.00 0.00
0.05 0.05 0.05 0.05 0.05 0.05 0.05 0.04 0.04 0.03 0.03 0.03 0.05 0.07 0.21 0.51 0.88 0.70 0.48 0.64 1.98 3.61 3.13 0.87 0.04 0.04 0.03 0.01 0.00 0.01 0.02 0.05 0.08 0.05 0.07 0.02 0.00 0.00 0.00 0.00 0.00 0.00 0.00 0.00 0.00 0.00 0.00
0.07 0.06 0.07 0.07 0.06 0.05 0.05 0.05 0.04 0.04 0.04 0.04 0.05 0.06 0.16 0.25 0.47 0.71 1.01 1.51 3.23 3.61 1.47 0.42 0.03 0.04 0.03 0.02 0.02 0.01 0.06 0.07 0.20 0.31 0.31 0.06 0.00 0.00 0.00 0.00 0.00 0.00 0.02 0.14 0.09 0.02 0.00
0.12 0.09 0.07 0.06 0.06 0.06 0.05 0.05 0.05 0.05 0.05 0.06 0.06 0.11 0.10 0.13 0.31 0.95 2.11 2.45 2.95 1.65 0.84 0.14 0.00 0.02 0.06 0.05 0.04 0.05 0.13 0.18 0.05 0.03 0.03 0.01 0.00 0.00 0.00 0.00 0.00 0.00 0.01 0.09 0.07 0.01 0.00
0.13 0.11 0.09 0.07 0.07 0.07 0.07 0.07 0.06 0.06 0.07 0.08 0.17 0.22 0.19 0.06 0.33 1.11 2.14 3.24 2.10 0.75 0.22 0.04 0.01 0.05 0.05 0.06 0.06 0.11 0.14 0.19 0.07 0.02 0.03 0.04 0.01 0.00 0.00 0.00 0.00 0.01 0.09 0.11 0.07 0.06 0.03
0.11 0.11 0.10 0.09 0.07 0.07 0.07 0.08 0.08 0.08 0.10 0.17 0.31 0.40 0.24 0.03 0.34 1.45 2.39 1.94 1.09 0.34 0.04 0.01 0.03 0.08 0.05 0.03 0.14 0.17 0.13 0.09 0.08 0.05 0.03 0.02 0.04 0.00 0.00 0.00 0.00 0.00 0.01 0.08 0.44 0.45 0.07
0.10 0.11 0.12 0.11 0.10 0.09 0.08 0.08 0.08 0.09 0.11 0.25 0.51 0.78 0.26 0.06 0.68 2.14 2.52 1.21 0.48 0.18 0.05 0.03 0.04 0.09 0.06 0.04 0.10 0.17 0.23 0.06 0.03 0.04 0.08 0.07 0.11 0.07 0.04 0.02 0.01 0.00 0.01 0.11 0.22 0.11 0.01
0.08 0.09 0.10 0.13 0.16 0.16 0.14 0.11 0.09 0.12 0.23 0.46 0.80 0.97 0.23 0.19 1.35 2.10 1.50 0.59 0.30 0.05 0.01 0.04 0.07 0.23 0.13 0.02 0.07 0.21 0.26 0.17 0.08 0.06 0.11 0.09 0.16 0.17 0.06 0.01 0.02 0.01 0.00 0.02 0.05 0.03 0.00
0.06 0.07 0.07 0.09 0.15 0.20 0.22 0.18 0.16 0.17 0.38 0.82 1.13 0.61 0.42 0.55 1.19 1.15 0.59 0.44 0.27 0.06 0.01 0.05 0.17 0.16 0.32 0.12 0.07 0.09 0.14 0.11 0.05 0.13 0.25 0.23 0.54 0.72 0.34 0.19 0.20 0.06 0.01 0.00 0.00 0.01 0.01
0.05 0.05 0.06 0.06 0.12 0.18 0.22 0.24 0.24 0.29 0.39 0.89 1.37 1.09 1.00 1.65 0.67 0.31 0.38 0.39 0.41 0.13 0.07 0.04 0.11 0.10 0.15 0.39 0.28 0.15 0.07 0.07 0.06 0.11 0.18 0.39 0.78 0.57 0.41 0.20 0.11 0.05 0.01 0.01 0.01 0.03 0.01
0.04 0.07 0.12 0.11 0.16 0.25 0.24 0.24 0.30 0.43 0.63 1.41 1.93 1.19 0.62 1.21 1.10 0.42 0.22 0.28 0.22 0.22 0.11 0.12 0.12 0.11 0.18 0.25 0.36 0.50 0.31 0.04 0.05 0.10 0.19 0.46 0.99 0.61 0.37 0.16 0.12 0.12 0.16 0.08 0.05 0.04 0.01
0.05 0.12 0.24 0.27 0.33 0.36 0.34 0.35 0.41 0.48 0.78 1.47 2.02 1.17 0.65 0.30 0.17 0.38 0.32 0.28 0.19 0.16 0.16 0.19 0.23 0.10 0.09 0.24 0.27 0.30 0.46 0.44 0.12 0.06 0.27 0.46 0.69 0.47 0.40 0.21 0.26 0.30 0.17 0.20 0.19 0.06 0.00
0.06 0.08 0.09 0.14 0.25 0.45 0.51 0.57 0.47 0.56 0.98 1.36 0.93 0.41 0.64 0.65 0.27 0.51 0.42 0.19 0.11 0.08 0.10 0.11 0.16 0.12 0.10 0.09 0.13 0.18 0.23 0.54 0.80 0.47 0.37 0.53 0.85 0.79 0.63 0.22 0.37 0.54 0.30 0.13 0.13 0.11 0.03
0.07 0.08 0.09 0.11 0.21 0.34 0.53 0.57 0.58 0.83 0.94 0.94 0.60 0.49 0.93 0.92 0.32 0.22 0.16 0.11 0.06 0.06 0.10 0.05 0.06 0.15 0.14 0.05 0.11 0.28 0.39 0.48 0.55 0.79 0.82 0.76 0.76 1.01 0.86 0.46 0.94 0.37 0.08 0.10 0.16 0.11 0.04
0.11 0.12 0.12 0.11 0.17 0.32 0.78 0.71 0.66 1.02 1.05 0.82 0.54 0.78 1.03 0.90 0.43 0.13 0.11 0.16 0.11 0.09 0.13 0.10 0.05 0.10 0.09 0.15 0.61 1.01 1.07 1.08 0.90 0.55 0.51 0.83 0.81 1.11 1.07 0.63 0.41 0.15 0.07 0.00 0.04 0.09 0.03
0.19 0.22 0.22 0.14 0.10 0.12 0.41 0.93 0.72 0.86 0.66 0.58 0.53 0.61 0.95 0.85 0.55 0.18 0.13 0.25 0.31 0.35 0.39 0.32 0.15 0.06 0.37 1.21 1.56 1.43 0.94 0.84 0.87 0.73 0.51 0.48 0.80 0.87 0.91 0.78 0.52 0.13 0.01 0.00 0.01 0.08 0.01
0.12 0.28 0.37 0.29 0.23 0.12 0.09 0.62 0.72 0.62 0.53 0.35 0.24 0.28 0.71 1.01 0.43 0.60 0.44 0.33 0.47 0.40 0.57 0.50 0.43 0.60 0.96 1.81 1.67 0.96 0.68 0.31 0.40 0.56 0.69 0.81 0.97 1.36 1.02 0.60 0.32 0.07 0.01 0.00 0.08 0.15 0.01
0.05 0.11 0.37 0.53 0.39 0.31 0.24 0.17 0.31 0.43 0.53 0.53 0.48 0.31 0.64 1.00 0.53 0.45 0.57 0.31 0.51 0.65 0.80 0.65 0.61 0.97 1.26 1.45 1.32 1.06 0.72 0.44 0.33 0.21 0.24 0.52 0.65 0.78 1.02 1.04 0.59 0.05 0.00 0.01 0.03 0.01 0.00
0.04 0.04 0.06 0.29 0.51 0.34 0.21 0.20 0.21 0.30 0.40 0.59 0.69 0.57 0.63 1.24 0.89 0.34 0.36 0.39 0.19 0.43 0.52 0.53 0.42 0.33 0.43 0.66 0.76 0.64 0.62 0.49 0.35 0.27 0.12 0.19 0.42 0.43 0.38 0.40 0.23 0.09 0.07 0.02 0.00 0.00 0.00

GFSGBSN_prec_precacc24_234.txt.gz
Total_Precipitation_Accumulation
0.03 0.03 0.02 0.02 0.02 0.02 0.02 0.06 0.12 0.16 0.17 0.16 0.13 0.10 0.11 0.11 0.09 0.08 0.08 0.08 0.08 0.06 0.06 0.09 0.11 0.08 0.01 0.00 0.00 0.00 0.00 0.00 0.00 0.00 0.00 0.00 0.00 0.00 0.00 0.00 0.00 0.00 0.00 0.00 0.00 0.00 0.00
0.05 0.04 0.03 0.02 0.02 0.01 0.01 0.02 0.06 0.10 0.13 0.15 0.15 0.13 0.12 0.11 0.12 0.12 0.11 0.09 0.09 0.08 0.08 0.12 0.23 0.24 0.05 0.00 0.00 0.00 0.00 0.00 0.00 0.00 0.00 0.00 0.00 0.00 0.00 0.00 0.00 0.00 0.00 0.00 0.00 0.00 0.00
0.05 0.05 0.04 0.04 0.04 0.02 0.01 0.02 0.03 0.05 0.10 0.12 0.15 0.16 0.17 0.15 0.14 0.14 0.14 0.12 0.09 0.11 0.12 0.16 0.38 0.48 0.20 0.01 0.00 0.00 0.00 0.00 0.00 0.00 0.00 0.00 0.00 0.00 0.00 0.00 0.00 0.00 0.00 0.00 0.00 0.00 0.00
0.05 0.05 0.06 0.07 0.05 0.05 0.04 0.04 0.03 0.03 0.06 0.10 0.14 0.18 0.17 0.18 0.18 0.18 0.18 0.17 0.17 0.17 0.23 0.28 0.45 0.48 0.28 0.00 0.00 0.00 0.00 0.00 0.00 0.00 0.00 0.00 0.00 0.00 0.00 0.00 0.00 0.00 0.00 0.00 0.00 0.00 0.00
0.07 0.06 0.06 0.07 0.07 0.07 0.06 0.06 0.06 0.04 0.04 0.09 0.16 0.21 0.23 0.22 0.22 0.23 0.28 0.31 0.28 0.32 0.52 0.79 0.88 0.73 0.26 0.00 0.00 0.00 0.00 0.00 0.00 0.00 0.00 0.00 0.00 0.00 0.00 0.00 0.00 0.00 0.00 0.00 0.00 0.00 0.00
0.08 0.06 0.06 0.07 0.09 0.08 0.07 0.07 0.09 0.08 0.06 0.07 0.14 0.28 0.36 0.38 0.34 0.32 0.33 0.39 0.45 0.70 0.94 1.62 1.96 1.62 0.42 0.01 0.00 0.00 0.00 0.00 0.00 0.00 0.00 0.00 0.00 0.00 0.00 0.00 0.00 0.00 0.00 0.00 0.00 0.00 0.00
0.10 0.07 0.07 0.07 0.07 0.07 0.08 0.09 0.11 0.09 0.09 0.11 0.15 0.20 0.35 0.53 0.64 0.69 0.77 0.95 1.06 1.06 1.03 1.08 1.27 1.10 0.29 0.05 0.02 0.00 0.00 0.02 0.05 0.00 0.00 0.00 0.00 0.00 0.00 0.00 0.00 0.00 0.00 0.00 0.00 0.00 0.00
0.07 0.07 0.07 0.07 0.06 0.07 0.07 0.09 0.10 0.08 0.11 0.12 0.13 0.15 0.19 0.36 0.71 1.24 1.56 1.30 0.62 0.30 0.47 0.21 0.20 0.40 0.31 0.17 0.18 0.03 0.00 0.01 0.19 0.19 0.00 0.00 0.00 0.00 0.00 0.00 0.00 0.00 0.00 0.00 0.00 0.00 0.00
0.08 0.06 0.06 0.05 0.06 0.07 0.07 0.08 0.07 0.07 0.07 0.08 0.11 0.12 0.16 0.25 0.54 1.28 1.53 0.83 0.19 0.35 1.11 0.52 0.06 0.05 0.06 0.21 0.31 0.12 0.06 0.02 0.02 0.05 0.02 0.00 0.00 0.00 0.00 0.00 0.00 0.00 0.00 0.00 0.00 0.00 0.00
0.05 0.03 0.03 0.03 0.04 0.04 0.04 0.04 0.05 0.05 0.05 0.06 0.06 0.09 0.15 0.35 0.61 0.50 0.96 0.44 0.30 0.89 2.63 1.51 0.20 0.03 0.01 0.15 0.50 0.11 0.14 0.14 0.07 0.02 0.01 0.01 0.00 0.00 0.00 0.00 0.00 0.00 0.00 0.00 0.00 0.00 0.00
0.06 0.04 0.03 0.03 0.03 0.03 0.03 0.02 0.02 0.03 0.04 0.04 0.05 0.05 0.12 0.37 0.29 0.21 0.27 0.31 0.84 2.06 3.22 1.35 0.10 0.01 0.00 0.04 0.19 0.06 0.08 0.22 0.18 0.03 0.06 0.11 0.00 0.00 0.00 0.00 0.00 0.00 0.00 0.00 0.00 0.00 0.00
0.07 0.06 0.05 0.05 0.05 0.05 0.04 0.04 0.04 0.03 0.03 0.04 0.05 0.06 0.15 0.23 0.34 0.17 0.19 0.52 1.73 2.96 2.73 0.86 0.04 0.04 0.04 0.02 0.01 0.02 0.11 0.30 0.30 0.20 0.20 0.05 0.00 0.00 0.00 0.00 0.00 0.00 0.00 0.01 0.00 0.00 0.00
0.07 0.08 0.08 0.07 0.06 0.05 0.05 0.05 0.04 0.04 0.04 0.04 0.05 0.06 0.14 0.17 0.15 0.29 0.52 1.00 2.24 2.81 1.33 0.42 0.03 0.05 0.05 0.03 0.02 0.02 0.18 0.31 0.49 0.67 0.68 0.15 0.04 0.01 0.00 0.00 0.01 0.02 0.07 0.28 0.17 0.04 0.00
0.07 0.07 0.07 0.07 0.06 0.06 0.05 0.05 0.05 0.05 0.05 0.06 0.06 0.11 0.09 0.09 0.08 0.46 1.47 1.82 1.98 1.19 0.79 0.14 0.01 0.02 0.09 0.13 0.07 0.06 0.20 0.42 0.21 0.17 0.22 0.12 0.08 0.05 0.01 0.00 0.01 0.02 0.05 0.16 0.10 0.01 0.00
0.07 0.07 0.07 0.07 0.06 0.07 0.07 0.07 0.06 0.07 0.07 0.08 0.16 0.20 0.18 0.06 0.13 0.59 1.56 2.44 1.30 0.55 0.22 0.04 0.01 0.05 0.05 0.10 0.22 0.21 0.17 0.30 0.27 0.21 0.26 0.27 0.16 0.03 0.00 0.00 0.00 0.04 0.17 0.16 0.10 0.13 0.06
0.06 0.06 0.07 0.06 0.06 0.07 0.07 0.08 0.08 0.08 0.10 0.16 0.28 0.37 0.23 0.03 0.20 0.85 1.88 1.41 0.66 0.27 0.04 0.01 0.03 0.08 0.05 0.03 0.16 0.31 0.39 0.24 0.16 0.17 0.21 0.16 0.18 0.05 0.03 0.02 0.03 0.13 0.08 0.13 0.70 0.67 0.14
0.07 0.08 0.08 0.07 0.07 0.07 0.08 0.08 0.09 0.09 0.11 0.23 0.44 0.74 0.26 0.06 0.54 1.62 1.82 0.78 0.31 0.16 0.05 0.03 0.04 0.09 0.06 0.04 0.10 0.17 0.31 0.27 0.20 0.20 0.27 0.39 0.40 0.16 0.11 0.14 0.10 0.11 0.17 0.26 0.35 0.16 0.01
0.05 0.05 0.05 0.06 0.09 0.10 0.10 0.10 0.11 0.13 0.22 0.39 0.74 0.94 0.23 0.23 1.30 1.75 0.96 0.31 0.23 0.04 0.01 0.04 0.07 0.23 0.13 0.02 0.06 0.21 0.26 0.19 0.16 0.15 0.22 0.38 0.66 0.34 0.10 0.03 0.06 0.03 0.04 0.12 0.10 0.05 0.00
0.04 0.06 0.06 0.05 0.08 0.10 0.12 0.14 0.15 0.16 0.36 0.80 1.06 0.57 0.38 0.54 1.16 0.94 0.25 0.17 0.21 0.06 0.01 0.04 0.16 0.16 0.32 0.12 0.07 0.09 0.14 0.11 0.05 0.16 0.28 0.26 0.80 1.06 0.44 0.22 0.27 0.23 0.13 0.07 0.04 0.03 0.01
0.07 0.06 0.04 0.04 0.06 0.08 0.11 0.16 0.21 0.27 0.38 0.87 1.28 1.00 0.94 1.60 0.70 0.30 0.25 0.16 0.30 0.15 0.07 0.04 0.12 0.10 0.15 0.39 0.28 0.15 0.07 0.07 0.06 0.11 0.18 0.41 0.84 0.73 0.62 0.40 0.24 0.17 0.18 0.23 0.16 0.09 0.03
0.04 0.05 0.05 0.07 0.09 0.13 0.11 0.16 0.25 0.41 0.62 1.37 1.80 1.06 0.55 1.16 1.00 0.38 0.18 0.16 0.12 0.23 0.14 0.13 0.14 0.12 0.19 0.25 0.36 0.50 0.31 0.04 0.05 0.10 0.21 0.53 1.11 0.72 0.52 0.27 0.23 0.23 0.29 0.24 0.28 0.22 0.07
0.04 0.05 0.06 0.12 0.20 0.23 0.21 0.29 0.40 0.47 0.73 1.41 1.89 1.08 0.55 0.28 0.16 0.28 0.20 0.18 0.15 0.18 0.21 0.22 0.26 0.12 0.09 0.25 0.28 0.30 0.46 0.44 0.12 0.06 0.27 0.47 0.70 0.47 0.41 0.21 0.27 0.31 0.19 0.26 0.30 0.21 0.11
0.04 0.06 0.06 0.08 0.16 0.31 0.39 0.53 0.47 0.56 0.93 1.27 0.86 0.39 0.56 0.58 0.27 0.44 0.29 0.11 0.08 0.08 0.12 0.14 0.18 0.13 0.11 0.11 0.14 0.18 0.23 0.53 0.79 0.47 0.36 0.52 0.84 0.79 0.60 0.22 0.37 0.54 0.30 0.13 0.13 0.14 0.08
0.06 0.08 0.08 0.09 0.13 0.22 0.42 0.53 0.58 0.84 0.95 0.95 0.59 0.51 0.86 0.78 0.25 0.18 0.04 0.03 0.05 0.06 0.11 0.06 0.06 0.16 0.15 0.05 0.13 0.28 0.34 0.41 0.47 0.75 0.79 0.72 0.71 0.94 0.80 0.46 0.93 0.37 0.08 0.10 0.16 0.11 0.05
0.08 0.11 0.11 0.07 0.10 0.22 0.71 0.71 0.69 1.06 1.09 0.86 0.57 0.83 1.01 0.80 0.30 0.11 0.07 0.07 0.09 0.09 0.12 0.10 0.05 0.09 0.09 0.16 0.71 0.97 0.89 0.90 0.72 0.43 0.46 0.80 0.78 1.06 1.05 0.62 0.41 0.15 0.07 0.00 0.04 0.09 0.03
0.08 0.11 0.16 0.11 0.07 0.11 0.42 0.93 0.73 0.87 0.66 0.65 0.57 0.66 0.87 0.85 0.39 0.12 0.12 0.16 0.24 0.31 0.32 0.24 0.11 0.05 0.36 1.30 1.60 1.36 0.83 0.78 0.83 0.67 0.43 0.42 0.75 0.84 0.88 0.78 0.52 0.13 0.01 0.00 0.01 0.08 0.01
0.06 0.11 0.17 0.18 0.18 0.09 0.09 0.61 0.70 0.62 0.52 0.38 0.27 0.32 0.69 0.89 0.32 0.32 0.40 0.31 0.36 0.37 0.53 0.36 0.30 0.50 0.94 1.97 1.72 0.87 0.59 0.29 0.38 0.54 0.65 0.73 0.92 1.34 1.01 0.61 0.33 0.07 0.01 0.00 0.08 0.15 0.01
0.05 0.06 0.14 0.20 0.15 0.17 0.17 0.14 0.25 0.33 0.44 0.50 0.47 0.31 0.65 0.89 0.46 0.22 0.30 0.30 0.49 0.67 0.85 0.60 0.64 0.94 1.24 1.53 1.32 0.96 0.67 0.42 0.31 0.20 0.24 0.50 0.66 0.78 1.02 1.07 0.61 0.05 0.00 0.01 0.03 0.01 0.00
0.04 0.04 0.05 0.12 0.22 0.16 0.11 0.15 0.12 0.19 0.31 0.55 0.70 0.56 0.64 1.21 0.86 0.16 0.16 0.27 0.19 0.43 0.56 0.60 0.50 0.37 0.47 0.71 0.76 0.62 0.62 0.48 0.34 0.25 0.12 0.19 0.42 0.43 0.38 0.41 0.23 0.09 0.07 0.02 0.00 0.00 0.00

GFSGBSN_prec_precacc24_240.txt.gz
Total_Precipitation_Accumulation
0.03 0.03 0.02 0.02 0.02 0.02 0.02 0.02 0.03 0.02 0.03 0.04 0.06 0.07 0.09 0.11 0.09 0.08 0.08 0.09 0.09 0.09 0.11 0.14 0.20 0.22 0.11 0.06 0.01 0.00 0.00 0.00 0.00 0.00 0.00 0.00 0.00 0.00 0.00 0.00 0.00 0.00 0.00 0.00 0.00 0.00 0.00
0.04 0.03 0.03 0.02 0.02 0.01 0.01 0.01 0.02 0.01 0.01 0.01 0.02 0.04 0.08 0.10 0.11 0.12 0.11 0.09 0.10 0.12 0.15 0.21 0.35 0.44 0.24 0.13 0.00 0.00 0.00 0.00 0.00 0.00 0.00 0.00 0.00 0.00 0.00 0.00 0.00 0.00 0.00 0.00 0.00 0.00 0.00
0.04 0.04 0.03 0.04 0.04 0.02 0.01 0.01 0.01 0.01 0.01 0.01 0.02 0.02 0.04 0.08 0.12 0.14 0.14 0.12 0.09 0.12 0.17 0.28 0.56 0.75 0.58 0.16 0.00 0.00 0.00 0.00 0.00 0.00 0.00 0.00 0.00 0.00 0.00 0.00 0.00 0.00 0.00 0.00 0.00 0.00 0.00
0.03 0.03 0.05 0.05 0.04 0.04 0.04 0.04 0.03 0.01 0.01 0.01 0.01 0.02 0.02 0.03 0.09 0.16 0.17 0.17 0.17 0.17 0.24 0.37 0.68 0.85 0.62 0.04 0.00 0.00 0.00 0.00 0.00 0.00 0.00 0.00 0.00 0.00 0.00 0.00 0.00 0.00 0.00 0.00 0.00 0.00 0.00
0.06 0.05 0.05 0.05 0.06 0.06 0.06 0.06 0.06 0.04 0.02 0.01 0.02 0.02 0.02 0.01 0.02 0.09 0.24 0.30 0.28 0.32 0.53 0.85 1.11 1.10 0.50 0.02 0.00 0.00 0.01 0.00 0.00 0.00 0.00 0.00 0.00 0.00 0.00 0.00 0.00 0.00 0.00 0.00 0.00 0.00 0.00
0.08 0.05 0.05 0.06 0.08 0.07 0.07 0.07 0.09 0.08 0.06 0.04 0.04 0.04 0.04 0.03 0.03 0.03 0.09 0.27 0.40 0.67 0.92 1.65 2.08 1.87 0.58 0.02 0.02 0.07 0.09 0.04 0.00 0.00 0.00 0.00 0.00 0.00 0.00 0.00 0.00 0.00 0.00 0.00 0.00 0.00 0.00
0.10 0.06 0.06 0.05 0.06 0.06 0.07 0.09 0.11 0.09 0.09 0.10 0.12 0.10 0.07 0.05 0.04 0.06 0.10 0.25 0.57 0.93 1.01 1.06 1.29 1.15 0.37 0.15 0.18 0.16 0.22 0.48 0.25 0.09 0.02 0.00 0.00 0.00 0.00 0.00 0.00 0.00 0.00 0.00 0.00 0.00 0.00
0.08 0.07 0.07 0.06 0.06 0.06 0.06 0.08 0.09 0.08 0.11 0.12 0.13 0.14 0.11 0.08 0.06 0.07 0.13 0.19 0.26 0.32 0.48 0.20 0.20 0.40 0.32 0.26 0.46 0.19 0.27 0.99 1.24 0.68 0.12 0.01 0.00 0.00 0.00 0.00 0.00 0.00 0.00 0.00 0.00 0.00 0.00
0.08 0.07 0.05 0.05 0.06 0.06 0.07 0.07 0.07 0.06 0.07 0.08 0.10 0.12 0.14 0.15 0.14 0.10 0.11 0.13 0.09 0.34 0.92 0.43 0.05 0.05 0.06 0.25 0.49 0.22 0.29 0.78 1.10 0.82 0.25 0.04 0.00 0.00 0.00 0.00 0.00 0.00 0.00 0.00 0.00 0.00 0.00
0.04 0.03 0.03 0.03 0.04 0.03 0.03 0.03 0.04 0.05 0.05 0.05 0.06 0.08 0.14 0.26 0.24 0.08 0.07 0.04 0.05 0.49 1.35 0.88 0.15 0.02 0.01 0.19 0.60 0.15 0.28 0.59 0.92 0.77 0.32 0.17 0.03 0.00 0.00 0.00 0.00 0.00 0.00 0.00 0.00 0.00 0.00
0.03 0.02 0.02 0.02 0.03 0.03 0.03 0.02 0.02 0.03 0.04 0.04 0.04 0.05 0.11 0.29 0.19 0.06 0.05 0.03 0.12 0.72 1.40 0.78 0.09 0.00 0.00 0.07 0.21 0.08 0.14 0.47 0.69 0.50 0.58 0.83 0.15 0.00 0.00 0.00 0.00 0.00 0.00 0.00 0.00 0.00 0.00
0.03 0.03 0.02 0.02 0.02 0.03 0.03 0.03 0.03 0.03 0.03 0.03 0.05 0.06 0.14 0.20 0.30 0.12 0.12 0.14 0.50 0.93 0.95 0.58 0.04 0.05 0.08 0.05 0.02 0.03 0.22 0.64 0.76 0.73 0.88 0.85 0.18 0.02 0.00 0.00 0.00 0.00 0.00 0.01 0.00 0.00 0.01
0.03 0.03 0.03 0.02 0.02 0.02 0.02 0.03 0.03 0.03 0.04 0.04 0.04 0.05 0.13 0.16 0.13 0.25 0.28 0.31 0.83 0.83 0.29 0.28 0.06 0.08 0.11 0.08 0.07 0.05 0.32 0.74 1.04 1.41 1.30 0.70 0.37 0.14 0.07 0.04 0.02 0.03 0.09 0.39 0.33 0.18 0.18
0.04 0.03 0.03 0.03 0.02 0.02 0.02 0.02 0.03 0.04 0.05 0.06 0.06 0.09 0.08 0.09 0.08 0.32 0.95 0.91 0.76 0.11 0.13 0.08 0.01 0.01 0.09 0.20 0.26 0.25 0.36 0.70 0.51 0.62 0.70 0.54 0.40 0.25 0.20 0.20 0.05 0.06 0.14 0.46 0.28 0.10 0.02
0.04 0.04 0.04 0.03 0.02 0.03 0.03 0.04 0.04 0.05 0.06 0.07 0.12 0.14 0.15 0.06 0.13 0.55 0.99 1.38 0.31 0.04 0.05 0.04 0.02 0.04 0.05 0.15 0.42 0.51 0.43 0.46 0.51 0.61 0.79 0.69 0.48 0.19 0.19 0.12 0.04 0.06 0.20 0.17 0.09 0.13 0.06
0.05 0.04 0.03 0.03 0.03 0.03 0.04 0.04 0.05 0.07 0.08 0.14 0.19 0.27 0.20 0.05 0.23 0.87 1.30 0.66 0.08 0.02 0.02 0.04 0.04 0.05 0.05 0.05 0.23 0.39 0.66 0.62 0.43 0.60 0.94 0.70 0.41 0.13 0.12 0.23 0.45 0.54 0.26 0.14 0.86 1.02 0.32
0.03 0.03 0.03 0.03 0.04 0.04 0.04 0.05 0.06 0.07 0.06 0.16 0.29 0.59 0.28 0.11 0.56 1.57 1.24 0.26 0.03 0.01 0.02 0.04 0.05 0.05 0.05 0.04 0.12 0.18 0.36 0.41 0.45 0.48 0.57 1.03 1.03 0.30 0.22 0.55 0.65 1.12 0.89 0.75 0.72 0.40 0.06
0.03 0.03 0.03 0.03 0.05 0.05 0.06 0.06 0.06 0.07 0.12 0.21 0.40 0.70 0.26 0.26 1.21 1.59 0.69 0.13 0.07 0.03 0.03 0.07 0.09 0.23 0.13 0.02 0.05 0.20 0.26 0.21 0.19 0.20 0.39 0.73 1.12 0.50 0.27 0.14 0.15 0.34 0.50 0.67 0.56 0.38 0.06
0.03 0.06 0.06 0.05 0.04 0.05 0.06 0.07 0.08 0.08 0.21 0.47 0.61 0.40 0.33 0.46 0.92 0.67 0.20 0.11 0.12 0.09 0.08 0.09 0.13 0.16 0.33 0.12 0.05 0.07 0.15 0.13 0.06 0.16 0.30 0.31 0.90 1.02 0.42 0.31 0.66 0.86 1.00 1.04 0.82 0.32 0.12
0.06 0.06 0.05 0.04 0.05 0.05 0.05 0.06 0.08 0.09 0.17 0.54 0.96 0.82 0.78 1.46 0.56 0.25 0.22 0.17 0.14 0.10 0.08 0.07 0.09 0.11 0.17 0.39 0.26 0.15 0.07 0.09 0.07 0.11 0.18 0.41 0.78 0.77 0.75 0.73 0.83 0.84 0.74 0.99 0.83 0.69 0.38
0.04 0.05 0.05 0.05 0.05 0.05 0.05 0.06 0.08 0.12 0.27 1.00 1.55 0.99 0.47 0.87 0.80 0.35 0.16 0.14 0.06 0.05 0.07 0.08 0.12 0.10 0.20 0.30 0.32 0.48 0.32 0.06 0.05 0.10 0.17 0.50 1.05 0.77 0.61 0.31 0.21 0.30 0.40 0.40 0.59 0.50 0.28
0.04 0.05 0.06 0.06 0.06 0.06 0.07 0.08 0.13 0.12 0.32 1.18 1.82 1.09 0.56 0.28 0.15 0.21 0.17 0.11 0.10 0.08 0.11 0.10 0.13 0.08 0.12 0.36 0.39 0.38 0.48 0.47 0.14 0.05 0.28 0.49 0.71 0.47 0.40 0.19 0.16 0.19 0.19 0.27 0.32 0.26 0.18
0.04 0.06 0.06 0.06 0.07 0.08 0.08 0.13 0.11 0.15 0.56 1.17 0.85 0.42 0.61 0.62 0.26 0.38 0.24 0.08 0.05 0.05 0.06 0.07 0.08 0.10 0.14 0.16 0.22 0.24 0.25 0.55 0.80 0.48 0.36 0.56 0.87 0.76 0.55 0.21 0.30 0.46 0.28 0.13 0.13 0.14 0.09
0.06 0.07 0.07 0.07 0.07 0.08 0.13 0.16 0.21 0.60 0.87 0.97 0.62 0.60 0.93 0.75 0.24 0.16 0.03 0.03 0.02 0.02 0.03 0.01 0.01 0.05 0.04 0.02 0.10 0.25 0.31 0.38 0.46 0.73 0.78 0.68 0.66 0.88 0.68 0.39 0.77 0.35 0.08 0.10 0.16 0.11 0.05
0.07 0.07 0.07 0.06 0.06 0.06 0.23 0.27 0.37 0.85 1.05 0.94 0.66 0.97 1.16 0.85 0.26 0.09 0.05 0.06 0.06 0.06 0.04 0.03 0.01 0.01 0.01 0.07 0.60 0.74 0.61 0.58 0.48 0.32 0.39 0.74 0.72 0.95 0.93 0.53 0.40 0.15 0.07 0.00 0.04 0.09 0.03
0.07 0.06 0.05 0.05 0.05 0.06 0.22 0.47 0.28 0.42 0.47 0.66 0.63 0.82 1.06 0.98 0.28 0.06 0.09 0.10 0.19 0.27 0.23 0.08 0.01 0.01 0.16 0.81 1.16 0.96 0.52 0.54 0.63 0.50 0.28 0.32 0.65 0.76 0.69 0.65 0.50 0.13 0.01 0.00 0.01 0.08 0.01
0.05 0.05 0.05 0.05 0.05 0.05 0.09 0.47 0.36 0.37 0.44 0.39 0.26 0.39 0.87 1.11 0.29 0.10 0.19 0.19 0.15 0.25 0.40 0.13 0.08 0.26 0.56 1.36 1.13 0.59 0.45 0.28 0.36 0.51 0.55 0.60 0.75 1.22 0.93 0.58 0.32 0.07 0.01 0.00 0.08 0.15 0.01
0.06 0.05 0.04 0.04 0.04 0.05 0.08 0.11 0.22 0.27 0.37 0.47 0.38 0.28 0.67 0.96 0.39 0.09 0.06 0.15 0.15 0.31 0.63 0.35 0.58 0.63 0.72 0.98 0.84 0.54 0.48 0.40 0.34 0.21 0.25 0.51 0.63 0.71 0.94 1.08 0.64 0.05 0.00 0.01 0.03 0.01 0.00
0.05 0.05 0.04 0.05 0.07 0.06 0.06 0.06 0.07 0.15 0.22 0.47 0.59 0.34 0.49 1.18 0.80 0.12 0.04 0.02 0.05 0.08 0.32 0.50 0.57 0.31 0.50 0.57 0.55 0.52 0.54 0.54 0.41 0.31 0.14 0.23 0.44 0.44 0.39 0.42 0.23 0.09 0.07 0.02 0.00 0.00 0.00

GFSGBSN_prec_precacc24_246.txt.gz
Total_Precipitation_Accumulation
0.02 0.02 0.02 0.02 0.01 0.01 0.02 0.02 0.03 0.02 0.01 0.01 0.00 0.00 0.02 0.06 0.06 0.07 0.08 0.09 0.09 0.09 0.11 0.14 0.20 0.22 0.11 0.06 0.01 0.00 0.00 0.00 0.00 0.00 0.00 0.00 0.00 0.00 0.00 0.00 0.00 0.00 0.00 0.00 0.00 0.00 0.00
0.03 0.03 0.02 0.02 0.02 0.01 0.01 0.00 0.02 0.02 0.01 0.01 0.01 0.00 0.01 0.01 0.04 0.07 0.09 0.08 0.09 0.12 0.15 0.21 0.35 0.45 0.25 0.13 0.00 0.00 0.00 0.00 0.00 0.00 0.00 0.00 0.00 0.00 0.00 0.00 0.00 0.00 0.00 0.00 0.00 0.00 0.00
0.03 0.03 0.02 0.03 0.03 0.02 0.01 0.01 0.01 0.00 0.01 0.01 0.02 0.02 0.02 0.01 0.02 0.03 0.08 0.09 0.08 0.11 0.17 0.28 0.56 0.76 0.59 0.16 0.00 0.00 0.00 0.00 0.00 0.00 0.00 0.00 0.00 0.00 0.00 0.00 0.00 0.00 0.00 0.00 0.00 0.00 0.00
0.02 0.02 0.04 0.04 0.04 0.03 0.04 0.03 0.03 0.01 0.01 0.01 0.01 0.02 0.01 0.02 0.02 0.02 0.02 0.04 0.09 0.14 0.23 0.37 0.68 0.86 0.62 0.04 0.00 0.00 0.00 0.00 0.00 0.00 0.00 0.00 0.00 0.00 0.00 0.00 0.00 0.00 0.00 0.00 0.00 0.00 0.00
0.04 0.04 0.04 0.04 0.05 0.05 0.06 0.06 0.06 0.04 0.01 0.01 0.02 0.02 0.01 0.01 0.01 0.02 0.03 0.02 0.02 0.13 0.37 0.76 1.11 1.10 0.50 0.02 0.00 0.00 0.02 0.02 0.02 0.01 0.00 0.00 0.01 0.01 0.00 0.00 0.00 0.00 0.00 0.00 0.00 0.00 0.00
0.03 0.02 0.02 0.03 0.06 0.07 0.06 0.07 0.09 0.08 0.06 0.04 0.04 0.04 0.04 0.03 0.02 0.02 0.02 0.02 0.00 0.06 0.22 0.98 1.92 1.85 0.58 0.02 0.02 0.07 0.11 0.11 0.07 0.14 0.09 0.01 0.03 0.04 0.01 0.00 0.00 0.00 0.00 0.00 0.00 0.00 0.00
0.02 0.01 0.02 0.03 0.04 0.05 0.06 0.08 0.11 0.09 0.09 0.09 0.11 0.09 0.06 0.04 0.03 0.04 0.03 0.01 0.02 0.14 0.26 0.54 1.14 1.14 0.37 0.15 0.18 0.16 0.23 0.58 0.41 0.27 0.37 0.13 0.23 0.27 0.06 0.02 0.00 0.00 0.00 0.00 0.00 0.00 0.00
0.02 0.01 0.01 0.02 0.03 0.03 0.04 0.07 0.08 0.08 0.10 0.12 0.12 0.12 0.10 0.07 0.05 0.05 0.06 0.05 0.09 0.14 0.16 0.08 0.18 0.40 0.32 0.26 0.46 0.19 0.27 1.04 1.40 0.94 0.41 0.37 0.48 0.30 0.11 0.04 0.02 0.00 0.00 0.00 0.00 0.00 0.00
0.02 0.02 0.01 0.02 0.02 0.02 0.03 0.03 0.03 0.04 0.05 0.07 0.10 0.12 0.13 0.14 0.12 0.06 0.09 0.10 0.07 0.11 0.20 0.03 0.01 0.05 0.06 0.25 0.49 0.22 0.29 0.79 1.20 1.04 0.49 0.52 0.45 0.20 0.17 0.10 0.05 0.01 0.00 0.00 0.00 0.00 0.00
0.02 0.01 0.02 0.02 0.02 0.02 0.01 0.01 0.01 0.01 0.02 0.03 0.05 0.07 0.13 0.22 0.19 0.07 0.06 0.04 0.05 0.22 0.19 0.02 0.01 0.02 0.01 0.19 0.60 0.15 0.28 0.59 0.99 0.92 0.49 0.49 0.28 0.15 0.25 0.25 0.11 0.06 0.00 0.00 0.00 0.00 0.00
0.02 0.02 0.02 0.02 0.02 0.02 0.01 0.01 0.01 0.01 0.01 0.01 0.02 0.03 0.09 0.25 0.19 0.06 0.04 0.02 0.10 0.30 0.20 0.03 0.00 0.01 0.01 0.08 0.23 0.09 0.15 0.49 0.71 0.57 0.82 1.17 0.29 0.12 0.13 0.23 0.11 0.12 0.01 0.00 0.00 0.00 0.00
0.02 0.03 0.02 0.02 0.02 0.02 0.02 0.01 0.01 0.01 0.01 0.00 0.01 0.02 0.09 0.15 0.28 0.12 0.11 0.13 0.39 0.55 0.17 0.02 0.01 0.06 0.09 0.07 0.06 0.07 0.29 0.68 0.78 0.78 0.99 1.10 0.34 0.23 0.23 0.05 0.04 0.10 0.02 0.01 0.00 0.01 0.04
0.03 0.03 0.02 0.02 0.02 0.01 0.01 0.01 0.01 0.01 0.02 0.02 0.01 0.01 0.05 0.11 0.12 0.24 0.27 0.28 0.63 0.46 0.01 0.00 0.04 0.07 0.11 0.10 0.11 0.08 0.37 0.86 1.20 1.58 1.33 0.75 0.45 0.28 0.24 0.20 0.06 0.13 0.31 0.53 0.36 0.28 0.26
0.03 0.03 0.03 0.03 0.02 0.01 0.01 0.01 0.02 0.02 0.02 0.02 0.02 0.03 0.01 0.04 0.07 0.30 0.83 0.66 0.47 0.04 0.02 0.01 0.01 0.01 0.09 0.23 0.32 0.29 0.44 0.83 0.85 0.88 0.87 0.60 0.43 0.29 0.31 0.47 0.18 0.21 0.46 0.91 0.49 0.16 0.06
0.04 0.04 0.04 0.03 0.01 0.01 0.01 0.01 0.02 0.03 0.03 0.02 0.05 0.03 0.04 0.01 0.10 0.48 0.91 0.94 0.12 0.02 0.04 0.03 0.02 0.02 0.03 0.15 0.45 0.53 0.44 0.49 0.73 0.75 0.96 0.83 0.54 0.21 0.20 0.14 0.11 0.27 0.65 0.50 0.33 0.24 0.10
0.05 0.04 0.03 0.02 0.02 0.02 0.01 0.01 0.02 0.03 0.04 0.07 0.10 0.09 0.06 0.05 0.22 0.68 1.08 0.42 0.01 0.02 0.02 0.04 0.06 0.04 0.05 0.05 0.23 0.39 0.66 0.63 0.50 0.62 0.97 0.79 0.51 0.16 0.16 0.30 0.58 0.68 0.57 0.64 1.30 1.54 0.65
0.03 0.03 0.03 0.02 0.02 0.02 0.02 0.03 0.04 0.04 0.03 0.07 0.12 0.16 0.09 0.11 0.44 1.09 0.82 0.16 0.02 0.00 0.01 0.07 0.09 0.05 0.01 0.08 0.13 0.17 0.38 0.44 0.48 0.48 0.57 1.06 1.10 0.32 0.38 0.69 0.74 1.32 1.26 1.35 1.42 0.90 0.27
0.03 0.03 0.04 0.03 0.03 0.03 0.03 0.03 0.05 0.05 0.05 0.08 0.20 0.27 0.16 0.24 0.79 0.87 0.38 0.12 0.07 0.03 0.03 0.06 0.07 0.06 0.07 0.04 0.04 0.18 0.29 0.28 0.21 0.20 0.39 0.74 1.19 0.52 0.33 0.39 0.26 0.40 0.71 1.12 1.20 0.87 0.27
0.04 0.07 0.08 0.05 0.03 0.03 0.03 0.04 0.05 0.05 0.11 0.35 0.39 0.15 0.22 0.40 0.58 0.22 0.12 0.12 0.12 0.09 0.09 0.11 0.10 0.10 0.05 0.01 0.06 0.05 0.16 0.16 0.09 0.17 0.31 0.31 0.81 0.86 0.43 0.52 0.94 1.32 1.47 1.49 1.42 0.82 0.42
0.07 0.07 0.05 0.04 0.05 0.04 0.03 0.04 0.04 0.05 0.11 0.39 0.55 0.32 0.28 0.84 0.39 0.18 0.19 0.16 0.14 0.10 0.07 0.07 0.06 0.04 0.05 0.02 0.04 0.05 0.04 0.13 0.09 0.13 0.22 0.43 0.68 0.69 0.82 0.90 1.09 1.27 1.02 1.15 1.11 1.11 0.72
0.05 0.05 0.06 0.06 0.05 0.04 0.04 0.04 0.05 0.07 0.19 0.62 0.67 0.32 0.15 0.23 0.36 0.31 0.16 0.14 0.06 0.05 0.07 0.08 0.11 0.08 0.10 0.14 0.06 0.08 0.06 0.04 0.07 0.13 0.22 0.51 0.95 0.71 0.60 0.32 0.26 0.40 0.54 0.48 0.67 0.67 0.48
0.05 0.05 0.06 0.06 0.06 0.06 0.06 0.06 0.08 0.08 0.20 0.48 0.61 0.50 0.39 0.25 0.09 0.13 0.14 0.10 0.10 0.08 0.11 0.10 0.12 0.08 0.10 0.22 0.23 0.22 0.16 0.15 0.15 0.12 0.36 0.67 0.82 0.50 0.41 0.19 0.14 0.16 0.16 0.26 0.31 0.27 0.21
0.04 0.06 0.06 0.07 0.07 0.08 0.08 0.07 0.09 0.10 0.29 0.38 0.16 0.18 0.67 0.64 0.24 0.34 0.20 0.08 0.06 0.06 0.06 0.07 0.08 0.10 0.13 0.11 0.10 0.07 0.06 0.11 0.13 0.14 0.25 0.54 0.90 0.81 0.55 0.20 0.27 0.36 0.24 0.13 0.13 0.14 0.10
0.07 0.08 0.08 0.08 0.07 0.07 0.07 0.06 0.05 0.11 0.29 0.45 0.27 0.51 0.91 0.61 0.19 0.14 0.04 0.03 0.03 0.02 0.05 0.01 0.00 0.03 0.02 0.01 0.02 0.02 0.00 0.05 0.13 0.15 0.23 0.42 0.55 0.84 0.65 0.34 0.45 0.24 0.08 0.10 0.16 0.11 0.05
0.08 0.09 0.08 0.07 0.06 0.05 0.06 0.07 0.08 0.11 0.25 0.42 0.34 0.86 1.22 0.84 0.23 0.09 0.06 0.07 0.07 0.06 0.05 0.04 0.01 0.02 0.02 0.06 0.47 0.39 0.09 0.06 0.03 0.08 0.07 0.16 0.28 0.63 0.71 0.37 0.25 0.14 0.07 0.00 0.04 0.09 0.04
0.07 0.06 0.06 0.06 0.05 0.06 0.05 0.05 0.05 0.06 0.14 0.34 0.27 0.62 1.07 1.11 0.28 0.06 0.10 0.11 0.20 0.28 0.23 0.09 0.01 0.02 0.16 0.73 0.89 0.46 0.10 0.03 0.02 0.03 0.07 0.11 0.14 0.36 0.44 0.46 0.31 0.11 0.01 0.00 0.01 0.09 0.01
0.05 0.06 0.06 0.05 0.05 0.04 0.05 0.07 0.08 0.10 0.17 0.31 0.20 0.36 0.91 1.20 0.26 0.09 0.19 0.20 0.16 0.27 0.45 0.14 0.09 0.26 0.54 1.13 0.78 0.28 0.07 0.04 0.03 0.04 0.05 0.18 0.47 0.66 0.51 0.41 0.23 0.07 0.01 0.00 0.07 0.15 0.01
0.06 0.06 0.05 0.04 0.04 0.05 0.06 0.07 0.07 0.09 0.15 0.30 0.27 0.21 0.63 0.93 0.31 0.05 0.04 0.10 0.14 0.29 0.53 0.28 0.58 0.59 0.67 0.85 0.51 0.29 0.16 0.12 0.07 0.02 0.04 0.08 0.26 0.49 0.62 0.83 0.56 0.05 0.00 0.01 0.03 0.01 0.00
0.05 0.06 0.05 0.05 0.07 0.06 0.06 0.06 0.07 0.10 0.15 0.30 0.34 0.11 0.32 1.05 0.64 0.07 0.03 0.02 0.04 0.08 0.32 0.49 0.50 0.21 0.47 0.58 0.47 0.44 0.34 0.24 0.16 0.17 0.09 0.17 0.19 0.22 0.30 0.37 0.23 0.11 0.08 0.02 0.00 0.00 0.00